| time (UTC) | temp F | wind direction | speed MPH | gust MPH | rain 1hr in | rain 24hr in | rain mn in | humidity % | barometer mb |
| 20260510033703 | 75 | 69 | 0.0 | 2.0 | 0.00 | 0.01 | 0.01 | 89 | 1014.5 |
| 20260510033603 | 75 | 69 | 0.0 | 2.0 | 0.00 | 0.01 | 0.01 | 89 | 1014.6 |
| 20260510033502 | 75 | 69 | 0.0 | 2.0 | 0.00 | 0.01 | 0.01 | 89 | 1014.6 |
| 20260510033402 | 75 | 69 | 0.0 | 2.0 | 0.00 | 0.01 | 0.01 | 88 | 1014.6 |
| 20260510033304 | 75 | 69 | 0.0 | 0.0 | 0.00 | 0.01 | 0.01 | 87 | 1014.6 |
| 20260510033203 | 0 | 0.0 | 0.0 | 0.00 | 0.01 | 0.01 | 1014.6 | ||
| 20260510033102 | 0 | 0.0 | 0.0 | 0.00 | 0.01 | 0.01 | 1014.6 | ||
| 20260510033005 | 0 | 0.0 | 0.0 | 0.00 | 0.01 | 0.01 | 1014.6 | ||
| 20260510032904 | 0 | 0.0 | 0.0 | 0.00 | 0.01 | 0.01 | 1014.6 | ||
| 20260510032803 | 0 | 0.0 | 0.0 | 0.00 | 0.01 | 0.01 | 1014.7 | ||
| 20260510032704 | 0 | 0.0 | 3.0 | 0.00 | 0.01 | 0.01 | 1014.7 | ||
| 20260510032604 | 0 | 0.0 | 3.0 | 0.00 | 0.01 | 0.01 | 1014.7 | ||
| 20260510032504 | 0 | 0.0 | 3.0 | 0.00 | 0.01 | 0.01 | 1014.8 | ||
| 20260510032403 | 0 | 0.0 | 3.0 | 0.00 | 0.01 | 0.01 | 1014.9 | ||
| 20260510032306 | 0 | 0.0 | 3.0 | 0.00 | 0.01 | 0.01 | 1014.9 | ||
| 20260510032204 | 76 | 62 | 2.0 | 5.0 | 0.00 | 0.01 | 0.01 | 87 | 1014.9 |
| 20260510032105 | 76 | 62 | 2.0 | 5.0 | 0.00 | 0.01 | 0.01 | 87 | 1015.0 |
| 20260510032004 | 76 | 62 | 2.0 | 5.0 | 0.00 | 0.01 | 0.01 | 87 | 1015.0 |
| 20260510031903 | 76 | 62 | 2.0 | 5.0 | 0.00 | 0.01 | 0.01 | 87 | 1015.0 |
| 20260510031803 | 76 | 62 | 2.0 | 5.0 | 0.00 | 0.01 | 0.01 | 87 | 1015.0 |
| 20260510031703 | 76 | 75 | 2.0 | 5.0 | 0.00 | 0.01 | 0.01 | 87 | 1015.0 |
| 20260510031539 | 76 | 75 | 2.0 | 5.0 | 0.00 | 0.01 | 0.01 | 87 | 1015.1 |
| 20260510031437 | 76 | 61 | 2.0 | 5.0 | 0.00 | 0.01 | 0.01 | 87 | 1015.1 |
| 20260510031336 | 76 | 34 | 2.0 | 9.0 | 0.00 | 0.01 | 0.01 | 87 | 1015.0 |
| 20260510031235 | 76 | 102 | 2.0 | 9.0 | 0.00 | 0.01 | 0.01 | 87 | 1015.1 |
| 20260510031134 | 76 | 75 | 2.0 | 9.0 | 0.00 | 0.01 | 0.01 | 87 | 1015.0 |
| 20260510031036 | 76 | 78 | 2.0 | 9.0 | 0.00 | 0.01 | 0.01 | 87 | 1015.0 |
| 20260510030935 | 76 | 125 | 2.0 | 9.0 | 0.00 | 0.01 | 0.01 | 87 | 1014.9 |
| 20260510030835 | 76 | 87 | 1.0 | 9.0 | 0.00 | 0.01 | 0.01 | 86 | 1014.9 |
| 20260510030735 | 76 | 87 | 2.0 | 9.0 | 0.00 | 0.01 | 0.01 | 86 | 1014.9 |
| 20260510030635 | 76 | 68 | 2.0 | 9.0 | 0.00 | 0.01 | 0.01 | 87 | 1014.8 |
| 20260510030535 | 76 | 65 | 4.0 | 9.0 | 0.00 | 0.01 | 0.01 | 87 | 1014.8 |
| 20260510030435 | 76 | 66 | 5.0 | 9.0 | 0.00 | 0.01 | 0.01 | 87 | 1014.7 |
| 20260510030335 | 76 | 85 | 4.0 | 7.0 | 0.00 | 0.01 | 0.01 | 87 | 1014.7 |
| 20260510030234 | 76 | 69 | 3.0 | 7.0 | 0.00 | 0.01 | 0.01 | 87 | 1014.7 |
| 20260510030135 | 76 | 100 | 2.0 | 9.0 | 0.00 | 0.01 | 0.01 | 87 | 1014.6 |
| 20260510030035 | 77 | 73 | 2.0 | 9.0 | 0.00 | 0.01 | 0.01 | 87 | 1014.6 |
| 20260510025934 | 77 | 75 | 2.0 | 9.0 | 0.00 | 0.01 | 0.01 | 87 | 1014.6 |
| 20260510025835 | 77 | 73 | 2.0 | 9.0 | 0.00 | 0.01 | 0.01 | 87 | 1014.6 |
| 20260510025732 | 77 | 76 | 2.0 | 9.0 | 0.00 | 0.01 | 0.01 | 87 | 1014.6 |
| 20260510025630 | 77 | 80 | 3.0 | 9.0 | 0.00 | 0.01 | 0.01 | 87 | 1014.6 |
| 20260510025531 | 77 | 75 | 4.0 | 9.0 | 0.00 | 0.01 | 0.01 | 87 | 1014.6 |
| 20260510025432 | 77 | 104 | 3.0 | 9.0 | 0.00 | 0.01 | 0.01 | 87 | 1014.6 |
| 20260510025307 | 77 | 90 | 4.0 | 9.0 | 0.00 | 0.01 | 0.01 | 87 | 1014.6 |
| 20260510025205 | 77 | 100 | 5.0 | 7.0 | 0.00 | 0.01 | 0.01 | 87 | 1014.6 |
| 20260510025104 | 77 | 93 | 3.0 | 7.0 | 0.00 | 0.01 | 0.01 | 87 | 1014.6 |
| 20260510025006 | 77 | 107 | 2.0 | 9.0 | 0.00 | 0.01 | 0.01 | 87 | 1014.6 |
| 20260510024902 | 77 | 86 | 3.0 | 9.0 | 0.00 | 0.01 | 0.01 | 87 | 1014.7 |
| 20260510024803 | 77 | 82 | 3.0 | 9.0 | 0.00 | 0.01 | 0.01 | 88 | 1014.6 |
| 20260510024703 | 77 | 86 | 3.0 | 9.0 | 0.00 | 0.01 | 0.01 | 89 | 1014.6 |
| 20260510024603 | 77 | 82 | 5.0 | 9.0 | 0.00 | 0.01 | 0.01 | 89 | 1014.6 |
| 20260510024503 | 77 | 82 | 5.0 | 9.0 | 0.00 | 0.01 | 0.01 | 89 | 1014.5 |
| 20260510024403 | 77 | 82 | 5.0 | 10.0 | 0.00 | 0.01 | 0.01 | 89 | 1014.5 |
| 20260510024301 | 77 | 90 | 4.0 | 10.0 | 0.00 | 0.01 | 0.01 | 89 | 1014.5 |
| 20260510024203 | 77 | 93 | 4.0 | 10.0 | 0.00 | 0.01 | 0.01 | 89 | 1014.5 |
| 20260510024103 | 77 | 62 | 4.0 | 10.0 | 0.00 | 0.01 | 0.01 | 90 | 1014.5 |
| 20260510024003 | 77 | 99 | 3.0 | 10.0 | 0.00 | 0.01 | 0.01 | 90 | 1014.5 |
| 20260510023902 | 77 | 66 | 4.0 | 10.0 | 0.00 | 0.01 | 0.01 | 90 | 1014.5 |
| 20260510023803 | 78 | 61 | 4.0 | 10.0 | 0.00 | 0.01 | 0.01 | 90 | 1014.5 |
| 20260510023702 | 78 | 61 | 4.0 | 10.0 | 0.00 | 0.01 | 0.01 | 90 | 1014.5 |
| 20260510023604 | 78 | 68 | 5.0 | 10.0 | 0.00 | 0.01 | 0.01 | 90 | 1014.5 |
| 20260510023504 | 78 | 110 | 4.0 | 10.0 | 0.00 | 0.01 | 0.01 | 90 | 1014.5 |
| 20260510023403 | 78 | 96 | 5.0 | 9.0 | 0.00 | 0.01 | 0.01 | 90 | 1014.5 |
| 20260510023302 | 78 | 99 | 5.0 | 9.0 | 0.00 | 0.01 | 0.01 | 91 | 1014.4 |
| 20260510023203 | 78 | 86 | 4.0 | 9.0 | 0.00 | 0.01 | 0.01 | 91 | 1014.4 |
| 20260510023103 | 78 | 76 | 3.0 | 9.0 | 0.00 | 0.01 | 0.01 | 91 | 1014.3 |
| 20260510023003 | 78 | 73 | 4.0 | 9.0 | 0.00 | 0.01 | 0.01 | 91 | 1014.3 |
| 20260510022902 | 78 | 102 | 4.0 | 9.0 | 0.00 | 0.01 | 0.01 | 91 | 1014.1 |
| 20260510022802 | 78 | 63 | 4.0 | 9.0 | 0.00 | 0.01 | 0.01 | 91 | 1014.1 |
| 20260510022702 | 78 | 71 | 4.0 | 9.0 | 0.00 | 0.01 | 0.01 | 91 | 1014.0 |
| 20260510022602 | 78 | 82 | 4.0 | 9.0 | 0.00 | 0.01 | 0.01 | 91 | 1014.0 |
| 20260510022504 | 78 | 79 | 5.0 | 9.0 | 0.00 | 0.01 | 0.01 | 91 | 1014.0 |
| 20260510022403 | 78 | 89 | 5.0 | 9.0 | 0.00 | 0.01 | 0.01 | 91 | 1014.0 |
| 20260510022306 | 78 | 66 | 4.0 | 9.0 | 0.00 | 0.01 | 0.01 | 91 | 1014.0 |
| 20260510022202 | 78 | 82 | 5.0 | 9.0 | 0.00 | 0.01 | 0.01 | 91 | 1014.0 |
| 20260510022105 | 78 | 73 | 5.0 | 9.0 | 0.00 | 0.01 | 0.01 | 91 | 1014.0 |
| 20260510022002 | 78 | 73 | 3.0 | 9.0 | 0.00 | 0.01 | 0.01 | 91 | 1014.0 |
| 20260510021904 | 78 | 69 | 2.0 | 10.0 | 0.00 | 0.01 | 0.01 | 91 | 1013.9 |
| 20260510021802 | 78 | 96 | 3.0 | 10.0 | 0.00 | 0.01 | 0.01 | 91 | 1013.9 |
| 20260510021704 | 78 | 90 | 3.0 | 10.0 | 0.00 | 0.01 | 0.01 | 91 | 1013.9 |
| 20260510021603 | 78 | 61 | 4.0 | 10.0 | 0.00 | 0.01 | 0.01 | 91 | 1013.7 |
| 20260510021504 | 78 | 61 | 4.0 | 12.0 | 0.00 | 0.01 | 0.01 | 91 | 1013.8 |
| 20260510021404 | 78 | 61 | 4.0 | 12.0 | 0.00 | 0.01 | 0.01 | 91 | 1013.7 |
| 20260510021304 | 78 | 65 | 4.0 | 12.0 | 0.00 | 0.01 | 0.01 | 91 | 1013.8 |
| 20260510021203 | 78 | 68 | 3.0 | 12.0 | 0.00 | 0.01 | 0.01 | 91 | 1013.8 |
| 20260510021103 | 79 | 102 | 4.0 | 12.0 | 0.00 | 0.01 | 0.01 | 91 | 1013.8 |
| 20260510021002 | 79 | 58 | 4.0 | 12.0 | 0.00 | 0.01 | 0.01 | 91 | 1013.7 |
| 20260510020902 | 79 | 66 | 3.0 | 12.0 | 0.00 | 0.01 | 0.01 | 91 | 1013.7 |
| 20260510020804 | 79 | 85 | 4.0 | 12.0 | 0.00 | 0.01 | 0.01 | 91 | 1013.6 |
| 20260510020702 | 79 | 62 | 5.0 | 12.0 | 0.00 | 0.01 | 0.01 | 91 | 1013.6 |
| 20260510020603 | 79 | 114 | 4.0 | 12.0 | 0.00 | 0.01 | 0.01 | 91 | 1013.5 |
| 20260510020504 | 79 | 76 | 4.0 | 7.0 | 0.00 | 0.01 | 0.01 | 91 | 1013.5 |
| 20260510020403 | 79 | 138 | 3.0 | 7.0 | 0.00 | 0.01 | 0.01 | 91 | 1013.4 |
| 20260510020302 | 79 | 90 | 3.0 | 7.0 | 0.00 | 0.01 | 0.01 | 91 | 1013.3 |
| 20260510020202 | 79 | 65 | 2.0 | 7.0 | 0.00 | 0.01 | 0.01 | 90 | 1013.3 |
| 20260510020003 | 78 | 85 | 4.0 | 7.0 | 0.00 | 0.01 | 0.01 | 90 | 1013.3 |
| 20260510015904 | 78 | 116 | 3.0 | 5.0 | 0.00 | 0.01 | 0.01 | 90 | 1013.2 |
| 20260510015802 | 78 | 75 | 2.0 | 5.0 | 0.00 | 0.01 | 0.01 | 90 | 1013.1 |
| 20260510015703 | 78 | 71 | 2.0 | 5.0 | 0.00 | 0.01 | 0.01 | 90 | 1013.1 |
| 20260510015604 | 78 | 63 | 2.0 | 5.0 | 0.00 | 0.01 | 0.01 | 90 | 1013.1 |
| 20260510015502 | 78 | 73 | 2.0 | 5.0 | 0.00 | 0.01 | 0.01 | 90 | 1013.1 |
| 20260510015404 | 78 | 30 | 2.0 | 5.0 | 0.00 | 0.01 | 0.01 | 89 | 1013.1 |
| 20260510015306 | 78 | 78 | 2.0 | 4.0 | 0.00 | 0.01 | 0.01 | 89 | 1013.2 |
| 20260510015203 | 78 | 69 | 1.0 | 4.0 | 0.00 | 0.01 | 0.01 | 89 | 1013.0 |
| 20260510015102 | 77 | 69 | 2.0 | 4.0 | 0.00 | 0.01 | 0.01 | 89 | 1013.0 |
| 20260510015003 | 77 | 152 | 2.0 | 4.0 | 0.00 | 0.01 | 0.01 | 89 | 1013.0 |
| 20260510014902 | 77 | 69 | 2.0 | 4.0 | 0.00 | 0.01 | 0.01 | 89 | 1012.9 |
| 20260510014802 | 77 | 75 | 2.0 | 4.0 | 0.00 | 0.01 | 0.01 | 90 | 1012.8 |
| 20260510014704 | 77 | 75 | 2.0 | 4.0 | 0.00 | 0.01 | 0.01 | 90 | 1012.8 |
| 20260510014603 | 76 | 76 | 1.0 | 4.0 | 0.00 | 0.01 | 0.01 | 90 | 1012.8 |
| 20260510014503 | 76 | 147 | 0.0 | 1.0 | 0.00 | 0.01 | 0.01 | 90 | 1012.8 |
| 20260510014403 | 76 | 169 | 0.0 | 0.0 | 0.00 | 0.01 | 0.01 | 89 | 1012.7 |
| 20260510014302 | 76 | 169 | 0.0 | 0.0 | 0.00 | 0.01 | 0.01 | 89 | 1012.6 |
| 20260510014202 | 76 | 169 | 0.0 | 0.0 | 0.00 | 0.01 | 0.01 | 89 | 1012.6 |
| 20260510014103 | 76 | 169 | 0.0 | 0.0 | 0.00 | 0.01 | 0.01 | 88 | 1012.5 |
| 20260510014004 | 76 | 169 | 0.0 | 0.0 | 0.00 | 0.01 | 0.01 | 88 | 1012.4 |
| 20260510013904 | 76 | 169 | 0.0 | 0.0 | 0.00 | 0.01 | 0.01 | 88 | 1012.4 |
| 20260510013804 | 76 | 169 | 0.0 | 0.0 | 0.00 | 0.01 | 0.01 | 88 | 1012.3 |
| 20260510013703 | 76 | 169 | 0.0 | 0.0 | 0.00 | 0.01 | 0.01 | 88 | 1012.4 |
| 20260510013604 | 76 | 169 | 0.0 | 0.0 | 0.00 | 0.01 | 0.01 | 88 | 1012.3 |
| 20260510013503 | 76 | 169 | 0.0 | 0.0 | 0.00 | 0.01 | 0.01 | 88 | 1012.4 |
| 20260510013401 | 76 | 169 | 0.0 | 0.0 | 0.00 | 0.01 | 0.01 | 88 | 1012.3 |
| 20260510013302 | 76 | 169 | 0.0 | 0.0 | 0.01 | 0.01 | 0.01 | 88 | 1012.3 |
| 20260510013204 | 76 | 169 | 0.0 | 0.0 | 0.01 | 0.01 | 0.01 | 88 | 1012.2 |
| 20260510013103 | 76 | 169 | 0.0 | 0.0 | 0.01 | 0.01 | 0.01 | 88 | 1012.2 |
| 20260510013004 | 76 | 169 | 0.0 | 0.0 | 0.01 | 0.01 | 0.01 | 88 | 1012.2 |
| 20260510012902 | 76 | 169 | 0.0 | 0.0 | 0.01 | 0.01 | 0.01 | 88 | 1012.2 |
| 20260510012803 | 76 | 169 | 0.0 | 0.0 | 0.01 | 0.01 | 0.01 | 88 | 1012.2 |
| 20260510012703 | 76 | 169 | 0.0 | 0.0 | 0.01 | 0.01 | 0.01 | 88 | 1012.2 |
| 20260510012602 | 75 | 169 | 0.0 | 0.0 | 0.01 | 0.01 | 0.01 | 88 | 1012.1 |
| 20260510012504 | 75 | 169 | 0.0 | 0.0 | 0.01 | 0.01 | 0.01 | 88 | 1012.1 |
| 20260510012403 | 75 | 169 | 0.0 | 0.0 | 0.01 | 0.01 | 0.01 | 88 | 1012.1 |
| 20260510012306 | 75 | 169 | 0.0 | 0.0 | 0.01 | 0.01 | 0.01 | 88 | 1012.0 |
| 20260510012203 | 75 | 169 | 0.0 | 0.0 | 0.01 | 0.01 | 0.01 | 88 | 1012.0 |
| 20260510012103 | 75 | 169 | 0.0 | 0.0 | 0.01 | 0.01 | 0.01 | 87 | 1011.9 |
| 20260510012004 | 75 | 169 | 0.0 | 0.0 | 0.01 | 0.01 | 0.01 | 87 | 1012.0 |
| 20260510011904 | 75 | 169 | 0.0 | 0.0 | 0.01 | 0.01 | 0.01 | 87 | 1012.0 |
| 20260510011804 | 75 | 169 | 0.0 | 0.0 | 0.01 | 0.01 | 0.01 | 87 | 1012.0 |
| 20260510011703 | 74 | 169 | 0.0 | 0.0 | 0.01 | 0.01 | 0.01 | 87 | 1012.1 |
| 20260510011604 | 74 | 169 | 0.0 | 0.0 | 0.01 | 0.01 | 0.01 | 87 | 1012.0 |
| 20260510011503 | 74 | 169 | 0.0 | 0.0 | 0.01 | 0.01 | 0.01 | 87 | 1011.9 |
| 20260510011402 | 74 | 169 | 0.0 | 0.0 | 0.01 | 0.01 | 0.01 | 87 | 1011.9 |
| 20260510011304 | 74 | 169 | 0.0 | 0.0 | 0.01 | 0.01 | 0.01 | 87 | 1011.8 |
| 20260510011202 | 74 | 169 | 0.0 | 1.0 | 0.01 | 0.01 | 0.01 | 87 | 1011.8 |
| 20260510011103 | 74 | 169 | 0.0 | 2.0 | 0.01 | 0.01 | 0.01 | 87 | 1011.7 |
| 20260510011002 | 74 | 169 | 0.0 | 2.0 | 0.01 | 0.01 | 0.01 | 87 | 1011.7 |
| 20260510010901 | 74 | 169 | 0.0 | 2.0 | 0.01 | 0.01 | 0.01 | 87 | 1011.7 |
| 20260510010802 | 74 | 169 | 0.0 | 2.0 | 0.01 | 0.01 | 0.01 | 87 | 1011.7 |
| 20260510010702 | 74 | 169 | 0.0 | 2.0 | 0.01 | 0.01 | 0.01 | 87 | 1011.6 |
| 20260510010604 | 74 | 169 | 0.0 | 2.0 | 0.01 | 0.01 | 0.01 | 87 | 1011.6 |
| 20260510010502 | 74 | 169 | 0.0 | 2.0 | 0.01 | 0.01 | 0.01 | 87 | 1011.6 |
| 20260510010404 | 74 | 169 | 0.0 | 2.0 | 0.01 | 0.01 | 0.01 | 87 | 1011.6 |
| 20260510010304 | 74 | 169 | 1.0 | 2.0 | 0.01 | 0.01 | 0.01 | 87 | 1011.7 |
| 20260510010203 | 74 | 169 | 1.0 | 2.0 | 0.01 | 0.01 | 0.01 | 87 | 1011.6 |
| 20260510010003 | 74 | 169 | 0.0 | 2.0 | 0.01 | 0.00 | 0.01 | 87 | 1011.7 |
| 20260510005903 | 74 | 169 | 0.0 | 2.0 | 0.01 | 0.00 | 0.01 | 87 | 1011.7 |
| 20260510005804 | 74 | 169 | 0.0 | 2.0 | 0.01 | 0.00 | 0.01 | 87 | 1011.6 |
| 20260510005703 | 74 | 169 | 0.0 | 2.0 | 0.01 | 0.00 | 0.01 | 86 | 1011.6 |
| 20260510005602 | 74 | 169 | 0.0 | 2.0 | 0.01 | 0.00 | 0.01 | 86 | 1011.5 |
| 20260510005503 | 74 | 169 | 0.0 | 2.0 | 0.01 | 0.00 | 0.01 | 85 | 1011.5 |
| 20260510005401 | 74 | 169 | 0.0 | 2.0 | 0.01 | 0.00 | 0.01 | 85 | 1011.5 |
| 20260510005259 | 74 | 169 | 0.0 | 2.0 | 0.01 | 0.00 | 0.01 | 84 | 1011.4 |
| 20260510005158 | 74 | 169 | 0.0 | 2.0 | 0.01 | 0.00 | 0.01 | 84 | 1011.5 |
| 20260510005057 | 74 | 169 | 0.0 | 1.0 | 0.01 | 0.00 | 0.01 | 84 | 1011.6 |
| 20260510004955 | 74 | 169 | 0.0 | 1.0 | 0.01 | 0.00 | 0.01 | 84 | 1011.6 |
| 20260510004854 | 75 | 169 | 0.0 | 1.0 | 0.01 | 0.00 | 0.01 | 84 | 1011.6 |
| 20260510004752 | 75 | 169 | 0.0 | 2.0 | 0.01 | 0.00 | 0.01 | 84 | 1011.6 |
| 20260510004651 | 75 | 169 | 0.0 | 2.0 | 0.01 | 0.00 | 0.01 | 83 | 1011.6 |
| 20260510004549 | 75 | 169 | 0.0 | 2.0 | 0.01 | 0.00 | 0.01 | 83 | 1011.6 |
| 20260510004447 | 75 | 169 | 0.0 | 2.0 | 0.01 | 0.00 | 0.01 | 83 | 1011.5 |
| 20260510004345 | 75 | 169 | 1.0 | 4.0 | 0.01 | 0.00 | 0.01 | 82 | 1011.6 |
| 20260510004243 | 76 | 169 | 1.0 | 4.0 | 0.01 | 0.00 | 0.01 | 81 | 1011.4 |
| 20260510004142 | 76 | 169 | 0.0 | 4.0 | 0.01 | 0.00 | 0.01 | 81 | 1011.4 |
| 20260510004040 | 76 | 169 | 0.0 | 4.0 | 0.01 | 0.00 | 0.01 | 81 | 1011.3 |
| 20260510003939 | 76 | 169 | 1.0 | 4.0 | 0.01 | 0.00 | 0.01 | 80 | 1011.3 |
| 20260510003839 | 77 | 169 | 1.0 | 4.0 | 0.01 | 0.00 | 0.01 | 80 | 1011.2 |
| 20260510003736 | 77 | 169 | 1.0 | 4.0 | 0.01 | 0.00 | 0.01 | 79 | 1011.3 |
| 20260510003636 | 78 | 169 | 1.0 | 4.0 | 0.01 | 0.00 | 0.01 | 77 | 1011.3 |
| 20260510003532 | 78 | 169 | 2.0 | 6.0 | 0.01 | 0.00 | 0.01 | 77 | 1011.3 |
| 20260510003433 | 78 | 149 | 1.0 | 6.0 | 0.01 | 0.00 | 0.01 | 77 | 1011.2 |
| 20260510003330 | 79 | 212 | 0.0 | 6.0 | 0.00 | 0.00 | 0.00 | 76 | 1011.4 |
| 20260510003228 | 79 | 212 | 2.0 | 7.0 | 0.00 | 0.00 | 0.00 | 75 | 1011.4 |
| 20260510003125 | 80 | 212 | 2.0 | 7.0 | 0.00 | 0.00 | 0.00 | 73 | 1011.5 |
| 20260510003006 | 80 | 104 | 1.0 | 7.0 | 0.00 | 0.00 | 0.00 | 73 | 1011.5 |
| 20260510002903 | 80 | 155 | 2.0 | 7.0 | 0.00 | 0.00 | 0.00 | 72 | 1011.6 |
| 20260510002803 | 81 | 155 | 3.0 | 7.0 | 0.00 | 0.00 | 0.00 | 71 | 1011.5 |
| 20260510002703 | 81 | 154 | 2.0 | 7.0 | 0.00 | 0.00 | 0.00 | 70 | 1011.7 |
| 20260510002603 | 81 | 87 | 2.0 | 7.0 | 0.00 | 0.00 | 0.00 | 69 | 1011.7 |
| 20260510002504 | 81 | 89 | 2.0 | 7.0 | 0.00 | 0.00 | 0.00 | 69 | 1011.7 |
| 20260510002401 | 82 | 96 | 4.0 | 7.0 | 0.00 | 0.00 | 0.00 | 68 | 1011.6 |
| 20260510002306 | 82 | 214 | 3.0 | 7.0 | 0.00 | 0.00 | 0.00 | 68 | 1011.6 |
| 20260510002202 | 82 | 49 | 1.0 | 6.0 | 0.00 | 0.00 | 0.00 | 66 | 1011.8 |
| 20260510002103 | 82 | 166 | 1.0 | 5.0 | 0.00 | 0.00 | 0.00 | 66 | 1011.7 |
| 20260510002003 | 82 | 166 | 1.0 | 5.0 | 0.00 | 0.00 | 0.00 | 66 | 1011.6 |
| 20260510001902 | 82 | 82 | 1.0 | 5.0 | 0.00 | 0.00 | 0.00 | 66 | 1011.6 |
| 20260510001804 | 82 | 350 | 1.0 | 6.0 | 0.00 | 0.00 | 0.00 | 66 | 1011.5 |
| 20260510001705 | 83 | 142 | 2.0 | 9.0 | 0.00 | 0.00 | 0.00 | 66 | 1011.4 |
| 20260510001602 | 83 | 316 | 3.0 | 9.0 | 0.00 | 0.00 | 0.00 | 67 | 1011.4 |
| 20260510001504 | 83 | 238 | 3.0 | 9.0 | 0.00 | 0.00 | 0.00 | 65 | 1011.5 |
| 20260510001402 | 83 | 0 | 2.0 | 9.0 | 0.00 | 0.00 | 0.00 | 65 | 1011.5 |
| 20260510001303 | 83 | 235 | 3.0 | 9.0 | 0.00 | 0.00 | 0.00 | 64 | 1011.5 |
| 20260510001202 | 83 | 172 | 3.0 | 10.0 | 0.00 | 0.00 | 0.00 | 65 | 1011.5 |
| 20260510001104 | 83 | 228 | 3.0 | 10.0 | 0.00 | 0.00 | 0.00 | 64 | 1011.5 |
| 20260510001002 | 83 | 257 | 3.0 | 10.0 | 0.00 | 0.00 | 0.00 | 65 | 1011.5 |
| 20260510000902 | 84 | 282 | 3.0 | 10.0 | 0.00 | 0.00 | 0.00 | 66 | 1011.4 |
| 20260510000803 | 84 | 124 | 3.0 | 10.0 | 0.00 | 0.00 | 0.00 | 66 | 1011.4 |
| 20260510000702 | 84 | 169 | 3.0 | 10.0 | 0.00 | 0.00 | 0.00 | 66 | 1011.3 |
| 20260510000603 | 84 | 7 | 3.0 | 10.0 | 0.00 | 0.00 | 0.00 | 68 | 1011.3 |
| 20260510000504 | 84 | 292 | 4.0 | 10.0 | 0.00 | 0.00 | 0.00 | 68 | 1011.4 |
| 20260510000404 | 85 | 295 | 4.0 | 10.0 | 0.00 | 0.00 | 0.00 | 68 | 1011.4 |
| 20260510000304 | 85 | 235 | 4.0 | 10.0 | 0.00 | 0.00 | 0.00 | 76 | 1011.4 |
| 20260510000204 | 85 | 320 | 2.0 | 5.0 | 0.00 | 0.00 | 0.00 | 76 | 1011.4 |
| 20260510000004 | 86 | 76 | 1.0 | 2.0 | 0.00 | 0.00 | 0.00 | 74 | 1011.3 |
| 20260509235903 | 86 | 76 | 0.0 | 2.0 | 0.00 | 0.00 | 0.00 | 74 | 1011.3 |
| 20260509235803 | 86 | 75 | 0.0 | 2.0 | 0.00 | 0.00 | 0.00 | 75 | 1011.2 |
| 20260509235702 | 86 | 75 | 0.0 | 2.0 | 0.00 | 0.00 | 0.00 | 74 | 1011.2 |
| 20260509235604 | 86 | 75 | 0.0 | 2.0 | 0.00 | 0.00 | 0.00 | 74 | 1011.2 |
| 20260509235502 | 86 | 75 | 0.0 | 2.0 | 0.00 | 0.00 | 0.00 | 74 | 1011.2 |
| 20260509235403 | 86 | 75 | 0.0 | 2.0 | 0.00 | 0.00 | 0.00 | 75 | 1011.1 |
| 20260509235306 | 86 | 75 | 0.0 | 2.0 | 0.00 | 0.00 | 0.00 | 74 | 1011.1 |
| 20260509235202 | 86 | 75 | 1.0 | 3.0 | 0.00 | 0.00 | 0.00 | 74 | 1011.1 |
| 20260509235104 | 86 | 75 | 1.0 | 3.0 | 0.00 | 0.00 | 0.00 | 74 | 1011.1 |
| 20260509235003 | 86 | 75 | 0.0 | 3.0 | 0.00 | 0.00 | 0.00 | 73 | 1011.1 |
| 20260509234901 | 86 | 75 | 0.0 | 3.0 | 0.00 | 0.00 | 0.00 | 73 | 1011.0 |
| 20260509234802 | 86 | 75 | 0.0 | 3.0 | 0.00 | 0.00 | 0.00 | 72 | 1011.1 |
| 20260509234702 | 86 | 75 | 0.0 | 3.0 | 0.00 | 0.00 | 0.00 | 72 | 1011.0 |
| 20260509234601 | 86 | 75 | 0.0 | 3.0 | 0.00 | 0.00 | 0.00 | 72 | 1010.9 |
| 20260509234502 | 87 | 75 | 0.0 | 3.0 | 0.00 | 0.00 | 0.00 | 71 | 1010.8 |
| 20260509234403 | 87 | 75 | 1.0 | 3.0 | 0.00 | 0.00 | 0.00 | 71 | 1010.8 |
| 20260509234304 | 87 | 75 | 2.0 | 5.0 | 0.00 | 0.00 | 0.00 | 71 | 1010.8 |
| 20260509234204 | 87 | 75 | 1.0 | 5.0 | 0.00 | 0.00 | 0.00 | 71 | 1010.8 |
| 20260509234104 | 87 | 75 | 2.0 | 5.0 | 0.00 | 0.00 | 0.00 | 71 | 1010.8 |
| 20260509234005 | 87 | 75 | 2.0 | 5.0 | 0.00 | 0.00 | 0.00 | 71 | 1010.7 |
| 20260509233903 | 87 | 76 | 2.0 | 5.0 | 0.00 | 0.00 | 0.00 | 71 | 1010.8 |
| 20260509233802 | 87 | 75 | 1.0 | 5.0 | 0.00 | 0.00 | 0.00 | 70 | 1010.8 |
| 20260509233703 | 87 | 71 | 1.0 | 5.0 | 0.00 | 0.00 | 0.00 | 70 | 1010.7 |
| 20260509233603 | 87 | 71 | 1.0 | 5.0 | 0.00 | 0.00 | 0.00 | 70 | 1010.8 |
| 20260509233502 | 87 | 71 | 1.0 | 5.0 | 0.00 | 0.00 | 0.00 | 70 | 1010.9 |
| 20260509233403 | 87 | 71 | 2.0 | 5.0 | 0.00 | 0.00 | 0.00 | 70 | 1010.9 |
| 20260509233302 | 87 | 71 | 1.0 | 4.0 | 0.00 | 0.00 | 0.00 | 71 | 1011.0 |
| 20260509233202 | 87 | 71 | 0.0 | 2.0 | 0.00 | 0.00 | 0.00 | 72 | 1011.1 |
| 20260509233104 | 87 | 71 | 0.0 | 2.0 | 0.00 | 0.00 | 0.00 | 71 | 1011.0 |
| 20260509233005 | 87 | 71 | 0.0 | 2.0 | 0.00 | 0.00 | 0.00 | 71 | 1011.0 |
| 20260509232905 | 87 | 71 | 0.0 | 2.0 | 0.00 | 0.00 | 0.00 | 71 | 1011.1 |
| 20260509232803 | 87 | 71 | 0.0 | 2.0 | 0.00 | 0.00 | 0.00 | 72 | 1011.1 |
| 20260509232703 | 87 | 71 | 0.0 | 3.0 | 0.00 | 0.00 | 0.00 | 70 | 1011.0 |
| 20260509232603 | 87 | 71 | 0.0 | 3.0 | 0.00 | 0.00 | 0.00 | 69 | 1011.0 |
| 20260509232503 | 87 | 71 | 0.0 | 4.0 | 0.00 | 0.00 | 0.00 | 70 | 1011.0 |
| 20260509232403 | 87 | 71 | 0.0 | 4.0 | 0.00 | 0.00 | 0.00 | 70 | 1011.0 |
| 20260509232306 | 87 | 71 | 0.0 | 4.0 | 0.00 | 0.00 | 0.00 | 71 | 1010.9 |
| 20260509232202 | 87 | 71 | 0.0 | 4.0 | 0.00 | 0.00 | 0.00 | 70 | 1010.9 |
| 20260509232102 | 87 | 71 | 0.0 | 4.0 | 0.00 | 0.00 | 0.00 | 71 | 1010.9 |
| 20260509232005 | 88 | 71 | 1.0 | 4.0 | 0.00 | 0.00 | 0.00 | 70 | 1010.8 |
| 20260509231902 | 88 | 71 | 1.0 | 4.0 | 0.00 | 0.00 | 0.00 | 68 | 1010.8 |
| 20260509231802 | 88 | 71 | 1.0 | 4.0 | 0.00 | 0.00 | 0.00 | 69 | 1010.7 |
| 20260509231702 | 87 | 71 | 2.0 | 4.0 | 0.00 | 0.00 | 0.00 | 68 | 1010.8 |
| 20260509231557 | 87 | 71 | 2.0 | 4.0 | 0.00 | 0.00 | 0.00 | 68 | 1010.9 |
| 20260509231457 | 87 | 68 | 1.0 | 3.0 | 0.00 | 0.00 | 0.00 | 69 | 1010.8 |
| 20260509231353 | 87 | 38 | 1.0 | 3.0 | 0.00 | 0.00 | 0.00 | 69 | 1010.9 |
| 20260509231251 | 87 | 32 | 1.0 | 3.0 | 0.00 | 0.00 | 0.00 | 69 | 1010.9 |
| 20260509231152 | 87 | 32 | 1.0 | 3.0 | 0.00 | 0.00 | 0.00 | 69 | 1011.0 |
| 20260509231050 | 87 | 30 | 1.0 | 4.0 | 0.00 | 0.00 | 0.00 | 70 | 1011.0 |
| 20260509230948 | 87 | 25 | 1.0 | 4.0 | 0.00 | 0.00 | 0.00 | 69 | 1011.0 |
| 20260509230846 | 88 | 16 | 0.0 | 4.0 | 0.00 | 0.00 | 0.00 | 69 | 1011.0 |
| 20260509230744 | 88 | 28 | 0.0 | 4.0 | 0.00 | 0.00 | 0.00 | 71 | 1011.0 |
| 20260509230643 | 88 | 28 | 0.0 | 5.0 | 0.00 | 0.00 | 0.00 | 70 | 1011.1 |
| 20260509230542 | 88 | 34 | 1.0 | 5.0 | 0.00 | 0.00 | 0.00 | 69 | 1011.0 |
| 20260509230439 | 88 | 34 | 1.0 | 5.0 | 0.00 | 0.00 | 0.00 | 69 | 1010.9 |
| 20260509230339 | 88 | 35 | 2.0 | 5.0 | 0.00 | 0.00 | 0.00 | 68 | 1010.9 |
| 20260509230237 | 88 | 35 | 2.0 | 5.0 | 0.00 | 0.00 | 0.00 | 68 | 1010.8 |
| 20260509230136 | 88 | 35 | 2.0 | 5.0 | 0.00 | 0.00 | 0.00 | 69 | 1010.9 |
| 20260509230034 | 88 | 35 | 2.0 | 5.0 | 0.00 | 0.00 | 0.00 | 69 | 1010.8 |
| 20260509225934 | 87 | 35 | 2.0 | 5.0 | 0.00 | 0.00 | 0.00 | 70 | 1010.9 |
| 20260509225831 | 87 | 35 | 2.0 | 5.0 | 0.00 | 0.00 | 0.00 | 70 | 1010.8 |
| 20260509225731 | 87 | 35 | 2.0 | 5.0 | 0.00 | 0.00 | 0.00 | 70 | 1010.8 |
| 20260509225631 | 87 | 35 | 2.0 | 5.0 | 0.00 | 0.00 | 0.00 | 71 | 1010.8 |
| 20260509225531 | 86 | 51 | 2.0 | 5.0 | 0.00 | 0.00 | 0.00 | 71 | 1010.8 |
| 20260509225431 | 86 | 51 | 1.0 | 5.0 | 0.00 | 0.00 | 0.00 | 71 | 1010.8 |
| 20260509225331 | 86 | 30 | 1.0 | 5.0 | 0.00 | 0.00 | 0.00 | 72 | 1010.8 |
| 20260509225233 | 86 | 30 | 1.0 | 5.0 | 0.00 | 0.00 | 0.00 | 72 | 1010.8 |
| 20260509225131 | 86 | 30 | 2.0 | 5.0 | 0.00 | 0.00 | 0.00 | 74 | 1010.9 |
| 20260509225032 | 85 | 28 | 2.0 | 5.0 | 0.00 | 0.00 | 0.00 | 74 | 1010.8 |
| 20260509224932 | 85 | 28 | 0.0 | 1.0 | 0.00 | 0.00 | 0.00 | 74 | 1010.8 |
| 20260509224831 | 85 | 28 | 0.0 | 0.0 | 0.00 | 0.00 | 0.00 | 75 | 1010.9 |
| 20260509224731 | 85 | 28 | 0.0 | 0.0 | 0.00 | 0.00 | 0.00 | 75 | 1010.8 |
| 20260509224631 | 85 | 28 | 0.0 | 0.0 | 0.00 | 0.00 | 0.00 | 75 | 1010.8 |
| 20260509224533 | 85 | 28 | 0.0 | 0.0 | 0.00 | 0.00 | 0.00 | 74 | 1010.8 |
| 20260509224432 | 85 | 28 | 0.0 | 0.0 | 0.00 | 0.00 | 0.00 | 74 | 1010.8 |
| 20260509224331 | 85 | 28 | 0.0 | 0.0 | 0.00 | 0.00 | 0.00 | 74 | 1010.9 |
| 20260509224231 | 85 | 28 | 0.0 | 0.0 | 0.00 | 0.00 | 0.00 | 75 | 1010.8 |
| 20260509224131 | 85 | 28 | 0.0 | 0.0 | 0.00 | 0.00 | 0.00 | 75 | 1010.8 |
| 20260509224031 | 85 | 28 | 0.0 | 0.0 | 0.00 | 0.00 | 0.00 | 75 | 1010.9 |
| 20260509223931 | 85 | 28 | 0.0 | 1.0 | 0.00 | 0.00 | 0.00 | 75 | 1010.8 |
| 20260509223831 | 85 | 28 | 0.0 | 1.0 | 0.00 | 0.00 | 0.00 | 75 | 1010.8 |
| 20260509223731 | 85 | 28 | 0.0 | 1.0 | 0.00 | 0.00 | 0.00 | 75 | 1010.8 |
| 20260509223631 | 85 | 28 | 0.0 | 1.0 | 0.00 | 0.00 | 0.00 | 75 | 1010.7 |
| 20260509223532 | 86 | 28 | 0.0 | 1.0 | 0.00 | 0.00 | 0.00 | 75 | 1010.7 |
| 20260509223431 | 86 | 28 | 0.0 | 1.0 | 0.00 | 0.00 | 0.00 | 75 | 1010.7 |
| 20260509223331 | 86 | 28 | 0.0 | 1.0 | 0.00 | 0.00 | 0.00 | 75 | 1010.8 |
| 20260509223231 | 86 | 28 | 0.0 | 1.0 | 0.00 | 0.00 | 0.00 | 75 | 1010.7 |
| 20260509223132 | 86 | 28 | 0.0 | 1.0 | 0.00 | 0.00 | 0.00 | 74 | 1010.8 |
| 20260509223031 | 86 | 28 | 0.0 | 1.0 | 0.00 | 0.00 | 0.00 | 74 | 1010.8 |
| 20260509222931 | 87 | 28 | 0.0 | 1.0 | 0.00 | 0.00 | 0.00 | 74 | 1010.8 |
| 20260509222831 | 87 | 28 | 0.0 | 1.0 | 0.00 | 0.00 | 0.00 | 73 | 1010.8 |
| 20260509222731 | 87 | 28 | 0.0 | 1.0 | 0.00 | 0.00 | 0.00 | 73 | 1010.8 |
| 20260509222631 | 87 | 28 | 0.0 | 0.0 | 0.00 | 0.00 | 0.00 | 71 | 1010.7 |
| 20260509222532 | 87 | 28 | 0.0 | 0.0 | 0.00 | 0.00 | 0.00 | 71 | 1010.7 |
| 20260509222430 | 88 | 28 | 0.0 | 0.0 | 0.00 | 0.00 | 0.00 | 70 | 1010.7 |
| 20260509222331 | 88 | 28 | 0.0 | 0.0 | 0.00 | 0.00 | 0.00 | 70 | 1010.8 |
| 20260509222232 | 88 | 28 | 0.0 | 0.0 | 0.00 | 0.00 | 0.00 | 69 | 1010.8 |
| 20260509222132 | 88 | 28 | 0.0 | 0.0 | 0.00 | 0.00 | 0.00 | 66 | 1010.7 |
| 20260509222035 | 87 | 28 | 0.0 | 0.0 | 0.00 | 0.00 | 0.00 | 69 | 1010.7 |
| 20260509221932 | 87 | 28 | 0.0 | 0.0 | 0.00 | 0.00 | 0.00 | 69 | 1010.6 |
| 20260509221831 | 87 | 28 | 0.0 | 0.0 | 0.00 | 0.00 | 0.00 | 69 | 1010.7 |
| 20260509221732 | 87 | 28 | 0.0 | 0.0 | 0.00 | 0.00 | 0.00 | 69 | 1010.6 |
| 20260509221632 | 87 | 28 | 0.0 | 0.0 | 0.00 | 0.00 | 0.00 | 69 | 1010.7 |
| 20260509221532 | 87 | 28 | 0.0 | 0.0 | 0.00 | 0.00 | 0.00 | 71 | 1010.6 |
| 20260509221432 | 86 | 28 | 0.0 | 0.0 | 0.00 | 0.00 | 0.00 | 75 | 1010.7 |
| 20260509221330 | 86 | 28 | 0.0 | 0.0 | 0.00 | 0.00 | 0.00 | 75 | 1010.8 |
| 20260509221231 | 86 | 28 | 0.0 | 1.0 | 0.00 | 0.00 | 0.00 | 74 | 1010.7 |
| 20260509221131 | 86 | 28 | 0.0 | 1.0 | 0.00 | 0.00 | 0.00 | 74 | 1010.7 |
| 20260509221031 | 86 | 28 | 0.0 | 1.0 | 0.00 | 0.00 | 0.00 | 74 | 1010.7 |
| 20260509220932 | 86 | 28 | 0.0 | 1.0 | 0.00 | 0.00 | 0.00 | 74 | 1010.7 |
| 20260509220831 | 86 | 28 | 0.0 | 1.0 | 0.00 | 0.00 | 0.00 | 74 | 1010.7 |
| 20260509220731 | 86 | 28 | 0.0 | 1.0 | 0.00 | 0.00 | 0.00 | 73 | 1010.7 |
| 20260509220631 | 86 | 28 | 0.0 | 1.0 | 0.00 | 0.00 | 0.00 | 73 | 1010.6 |
| 20260509220531 | 87 | 28 | 0.0 | 1.0 | 0.00 | 0.00 | 0.00 | 73 | 1010.7 |
| 20260509220433 | 87 | 28 | 0.0 | 1.0 | 0.00 | 0.00 | 0.00 | 72 | 1010.6 |
| 20260509220332 | 87 | 28 | 0.0 | 1.0 | 0.00 | 0.00 | 0.00 | 72 | 1010.6 |
| 20260509220231 | 87 | 28 | 0.0 | 1.0 | 0.00 | 0.00 | 0.00 | 71 | 1010.6 |
| 20260509220131 | 87 | 28 | 1.0 | 2.0 | 0.00 | 0.00 | 0.00 | 72 | 1010.7 |
| 20260509220036 | 87 | 28 | 1.0 | 2.0 | 0.00 | 0.00 | 0.00 | 72 | 1010.7 |
| 20260509215929 | 87 | 28 | 1.0 | 2.0 | 0.00 | 0.00 | 0.00 | 70 | 1010.6 |
| 20260509215829 | 87 | 28 | 0.0 | 2.0 | 0.00 | 0.00 | 0.00 | 70 | 1010.7 |
| 20260509215729 | 87 | 28 | 0.0 | 2.0 | 0.00 | 0.00 | 0.00 | 72 | 1010.6 |
| 20260509215627 | 87 | 28 | 0.0 | 2.0 | 0.00 | 0.00 | 0.00 | 72 | 1010.6 |
| 20260509215528 | 86 | 28 | 0.0 | 2.0 | 0.00 | 0.00 | 0.00 | 71 | 1010.7 |
| 20260509215429 | 86 | 28 | 0.0 | 2.0 | 0.00 | 0.00 | 0.00 | 71 | 1010.6 |
| 20260509215327 | 86 | 28 | 1.0 | 2.0 | 0.00 | 0.00 | 0.00 | 72 | 1010.6 |
| 20260509215227 | 86 | 28 | 1.0 | 2.0 | 0.00 | 0.00 | 0.00 | 71 | 1010.7 |
| 20260509215128 | 86 | 28 | 1.0 | 2.0 | 0.00 | 0.00 | 0.00 | 72 | 1010.6 |
| 20260509215030 | 87 | 28 | 0.0 | 2.0 | 0.00 | 0.00 | 0.00 | 71 | 1010.7 |
| 20260509214927 | 87 | 28 | 0.0 | 1.0 | 0.00 | 0.00 | 0.00 | 71 | 1010.6 |
| 20260509214827 | 87 | 28 | 0.0 | 1.0 | 0.00 | 0.00 | 0.00 | 71 | 1010.6 |
| 20260509214728 | 87 | 28 | 0.0 | 2.0 | 0.00 | 0.00 | 0.00 | 70 | 1010.6 |
| 20260509214627 | 87 | 28 | 0.0 | 2.0 | 0.00 | 0.00 | 0.00 | 70 | 1010.6 |
| 20260509214529 | 87 | 28 | 0.0 | 2.0 | 0.00 | 0.00 | 0.00 | 69 | 1010.6 |
| 20260509214429 | 87 | 28 | 0.0 | 2.0 | 0.00 | 0.00 | 0.00 | 69 | 1010.7 |
| 20260509214327 | 88 | 28 | 1.0 | 3.0 | 0.00 | 0.00 | 0.00 | 68 | 1010.6 |
| 20260509214228 | 88 | 28 | 1.0 | 3.0 | 0.00 | 0.00 | 0.00 | 68 | 1010.6 |
| 20260509214129 | 88 | 28 | 1.0 | 3.0 | 0.00 | 0.00 | 0.00 | 67 | 1010.6 |
| 20260509214027 | 89 | 28 | 0.0 | 3.0 | 0.00 | 0.00 | 0.00 | 65 | 1010.6 |
| 20260509213927 | 89 | 28 | 1.0 | 3.0 | 0.00 | 0.00 | 0.00 | 65 | 1010.6 |
| 20260509213828 | 89 | 28 | 1.0 | 3.0 | 0.00 | 0.00 | 0.00 | 66 | 1010.6 |
| 20260509213729 | 89 | 28 | 0.0 | 4.0 | 0.00 | 0.00 | 0.00 | 65 | 1010.7 |
| 20260509213628 | 89 | 28 | 0.0 | 4.0 | 0.00 | 0.00 | 0.00 | 65 | 1010.7 |
| 20260509213528 | 89 | 28 | 1.0 | 4.0 | 0.00 | 0.00 | 0.00 | 66 | 1010.7 |
| 20260509213427 | 89 | 28 | 2.0 | 4.0 | 0.00 | 0.00 | 0.00 | 66 | 1010.7 |
| 20260509213328 | 89 | 28 | 2.0 | 4.0 | 0.00 | 0.00 | 0.00 | 65 | 1010.7 |
| 20260509213227 | 89 | 28 | 1.0 | 4.0 | 0.00 | 0.00 | 0.00 | 65 | 1010.7 |
| 20260509213127 | 89 | 28 | 0.0 | 4.0 | 0.00 | 0.00 | 0.00 | 66 | 1010.7 |
| 20260509213028 | 89 | 28 | 2.0 | 4.0 | 0.00 | 0.00 | 0.00 | 65 | 1010.7 |
| 20260509212927 | 89 | 28 | 2.0 | 4.0 | 0.00 | 0.00 | 0.00 | 65 | 1010.6 |
| 20260509212828 | 89 | 28 | 3.0 | 4.0 | 0.00 | 0.00 | 0.00 | 66 | 1010.7 |
| 20260509212728 | 89 | 28 | 3.0 | 4.0 | 0.00 | 0.00 | 0.00 | 65 | 1010.7 |
| 20260509212628 | 89 | 28 | 3.0 | 4.0 | 0.00 | 0.00 | 0.00 | 65 | 1010.6 |
| 20260509212526 | 89 | 28 | 4.0 | 4.0 | 0.00 | 0.00 | 0.00 | 65 | 1010.7 |
| 20260509212428 | 90 | 28 | 1.0 | 3.0 | 0.00 | 0.00 | 0.00 | 66 | 1010.6 |
| 20260509212328 | 90 | 28 | 1.0 | 3.0 | 0.00 | 0.00 | 0.00 | 65 | 1010.6 |
| 20260509212227 | 90 | 28 | 1.0 | 4.0 | 0.00 | 0.00 | 0.00 | 64 | 1010.7 |
| 20260509212127 | 90 | 28 | 1.0 | 4.0 | 0.00 | 0.00 | 0.00 | 66 | 1010.7 |
| 20260509212029 | 90 | 28 | 1.0 | 4.0 | 0.00 | 0.00 | 0.00 | 66 | 1010.7 |
| 20260509211929 | 89 | 32 | 0.0 | 4.0 | 0.00 | 0.00 | 0.00 | 66 | 1010.6 |
| 20260509211830 | 89 | 32 | 0.0 | 5.0 | 0.00 | 0.00 | 0.00 | 66 | 1010.7 |
| 20260509211729 | 89 | 32 | 0.0 | 5.0 | 0.00 | 0.00 | 0.00 | 66 | 1010.7 |
| 20260509211628 | 89 | 32 | 0.0 | 5.0 | 0.00 | 0.00 | 0.00 | 66 | 1010.7 |
| 20260509211527 | 89 | 32 | 2.0 | 5.0 | 0.00 | 0.00 | 0.00 | 66 | 1010.8 |
| 20260509211427 | 89 | 32 | 3.0 | 5.0 | 0.00 | 0.00 | 0.00 | 66 | 1010.7 |
| 20260509211328 | 89 | 32 | 3.0 | 5.0 | 0.00 | 0.00 | 0.00 | 66 | 1010.7 |
| 20260509211228 | 89 | 32 | 3.0 | 5.0 | 0.00 | 0.00 | 0.00 | 66 | 1010.8 |
| 20260509211126 | 89 | 21 | 2.0 | 5.0 | 0.00 | 0.00 | 0.00 | 66 | 1010.8 |
| 20260509211026 | 89 | 10 | 3.0 | 5.0 | 0.00 | 0.00 | 0.00 | 66 | 1010.8 |
| 20260509210927 | 89 | 0 | 3.0 | 5.0 | 0.00 | 0.00 | 0.00 | 66 | 1010.8 |
| 20260509210826 | 89 | 0 | 2.0 | 4.0 | 0.00 | 0.00 | 0.00 | 67 | 1010.8 |
| 20260509210727 | 89 | 38 | 2.0 | 4.0 | 0.00 | 0.00 | 0.00 | 66 | 1010.8 |
| 20260509210627 | 89 | 0 | 2.0 | 4.0 | 0.00 | 0.00 | 0.00 | 66 | 1010.8 |
| 20260509210528 | 89 | 0 | 2.0 | 4.0 | 0.00 | 0.00 | 0.00 | 66 | 1010.9 |
| 20260509210427 | 90 | 0 | 2.0 | 4.0 | 0.00 | 0.00 | 0.00 | 66 | 1010.8 |
| 20260509210327 | 89 | 347 | 2.0 | 5.0 | 0.00 | 0.00 | 0.00 | 66 | 1010.8 |
| 20260509210206 | 89 | 347 | 2.0 | 5.0 | 0.00 | 0.00 | 0.00 | 66 | 1010.9 |
| 20260509210104 | 89 | 0 | 2.0 | 5.0 | 0.00 | 0.00 | 0.00 | 66 | 1010.8 |
| 20260509210002 | 89 | 0 | 2.0 | 5.0 | 0.00 | 0.00 | 0.00 | 66 | 1010.8 |
| 20260509205903 | 89 | 289 | 2.0 | 5.0 | 0.00 | 0.00 | 0.00 | 66 | 1010.9 |
| 20260509205802 | 89 | 282 | 2.0 | 5.0 | 0.00 | 0.00 | 0.00 | 65 | 1010.9 |
| 20260509205703 | 89 | 276 | 1.0 | 5.0 | 0.00 | 0.00 | 0.00 | 65 | 1011.1 |
| 20260509205604 | 89 | 278 | 2.0 | 5.0 | 0.00 | 0.00 | 0.00 | 65 | 1011.0 |
| 20260509205502 | 89 | 274 | 3.0 | 5.0 | 0.00 | 0.00 | 0.00 | 65 | 1011.0 |
| 20260509205403 | 89 | 274 | 3.0 | 5.0 | 0.00 | 0.00 | 0.00 | 66 | 1011.0 |
| 20260509205307 | 89 | 281 | 2.0 | 5.0 | 0.00 | 0.00 | 0.00 | 66 | 1011.0 |
| 20260509205203 | 89 | 271 | 2.0 | 5.0 | 0.00 | 0.00 | 0.00 | 67 | 1011.0 |
| 20260509205102 | 89 | 268 | 2.0 | 5.0 | 0.00 | 0.00 | 0.00 | 65 | 1011.0 |
| 20260509205002 | 89 | 265 | 3.0 | 5.0 | 0.00 | 0.00 | 0.00 | 65 | 1011.0 |
| 20260509204902 | 89 | 266 | 2.0 | 5.0 | 0.00 | 0.00 | 0.00 | 65 | 1011.1 |
| 20260509204803 | 89 | 266 | 2.0 | 5.0 | 0.00 | 0.00 | 0.00 | 66 | 1011.1 |
| 20260509204703 | 89 | 23 | 2.0 | 5.0 | 0.00 | 0.00 | 0.00 | 66 | 1011.1 |
| 20260509204603 | 89 | 23 | 2.0 | 6.0 | 0.00 | 0.00 | 0.00 | 68 | 1011.1 |
| 20260509204504 | 88 | 23 | 2.0 | 6.0 | 0.00 | 0.00 | 0.00 | 67 | 1011.1 |
| 20260509204403 | 88 | 23 | 2.0 | 7.0 | 0.00 | 0.00 | 0.00 | 67 | 1011.1 |
| 20260509204303 | 88 | 28 | 1.0 | 7.0 | 0.00 | 0.00 | 0.00 | 66 | 1011.1 |
| 20260509204202 | 88 | 28 | 2.0 | 7.0 | 0.00 | 0.00 | 0.00 | 67 | 1011.1 |
| 20260509204103 | 89 | 28 | 2.0 | 7.0 | 0.00 | 0.00 | 0.00 | 67 | 1011.1 |
| 20260509204002 | 89 | 0 | 2.0 | 7.0 | 0.00 | 0.00 | 0.00 | 66 | 1011.2 |
| 20260509203904 | 89 | 0 | 2.0 | 7.0 | 0.00 | 0.00 | 0.00 | 67 | 1011.1 |
| 20260509203802 | 89 | 0 | 3.0 | 7.0 | 0.00 | 0.00 | 0.00 | 66 | 1011.1 |
| 20260509203702 | 89 | 355 | 5.0 | 7.0 | 0.00 | 0.00 | 0.00 | 65 | 1011.2 |
| 20260509203602 | 89 | 269 | 5.0 | 7.0 | 0.00 | 0.00 | 0.00 | 67 | 1011.2 |
| 20260509203505 | 89 | 258 | 5.0 | 7.0 | 0.00 | 0.00 | 0.00 | 66 | 1011.1 |
| 20260509203403 | 89 | 262 | 4.0 | 6.0 | 0.00 | 0.00 | 0.00 | 66 | 1011.2 |
| 20260509203303 | 89 | 266 | 4.0 | 6.0 | 0.00 | 0.00 | 0.00 | 65 | 1011.2 |
| 20260509203203 | 89 | 266 | 4.0 | 6.0 | 0.00 | 0.00 | 0.00 | 65 | 1011.2 |
| 20260509203102 | 89 | 266 | 3.0 | 6.0 | 0.00 | 0.00 | 0.00 | 66 | 1011.2 |
| 20260509203002 | 89 | 350 | 2.0 | 3.0 | 0.00 | 0.00 | 0.00 | 65 | 1011.2 |
| 20260509202903 | 89 | 354 | 1.0 | 3.0 | 0.00 | 0.00 | 0.00 | 66 | 1011.1 |
| 20260509202802 | 89 | 357 | 1.0 | 3.0 | 0.00 | 0.00 | 0.00 | 64 | 1011.2 |
| 20260509202702 | 89 | 357 | 1.0 | 3.0 | 0.00 | 0.00 | 0.00 | 65 | 1011.2 |
| 20260509202604 | 89 | 355 | 1.0 | 3.0 | 0.00 | 0.00 | 0.00 | 66 | 1011.2 |
| 20260509202504 | 89 | 355 | 2.0 | 3.0 | 0.00 | 0.00 | 0.00 | 65 | 1011.2 |
| 20260509202404 | 89 | 355 | 2.0 | 3.0 | 0.00 | 0.00 | 0.00 | 65 | 1011.3 |
| 20260509202306 | 89 | 10 | 1.0 | 3.0 | 0.00 | 0.00 | 0.00 | 66 | 1011.3 |
| 20260509202204 | 88 | 11 | 0.0 | 3.0 | 0.00 | 0.00 | 0.00 | 66 | 1011.3 |
| 20260509202103 | 88 | 11 | 1.0 | 3.0 | 0.00 | 0.00 | 0.00 | 66 | 1011.3 |
| 20260509202004 | 88 | 11 | 1.0 | 3.0 | 0.00 | 0.00 | 0.00 | 66 | 1011.3 |
| 20260509201903 | 88 | 272 | 1.0 | 3.0 | 0.00 | 0.00 | 0.00 | 68 | 1011.3 |
| 20260509201803 | 88 | 272 | 1.0 | 3.0 | 0.00 | 0.00 | 0.00 | 68 | 1011.3 |
| 20260509201639 | 88 | 252 | 1.0 | 4.0 | 0.00 | 0.00 | 0.00 | 66 | 1011.3 |
| 20260509201539 | 88 | 252 | 2.0 | 4.0 | 0.00 | 0.00 | 0.00 | 65 | 1011.3 |
| 20260509201437 | 89 | 252 | 2.0 | 4.0 | 0.00 | 0.00 | 0.00 | 66 | 1011.4 |
| 20260509201335 | 88 | 252 | 1.0 | 4.0 | 0.00 | 0.00 | 0.00 | 67 | 1011.4 |
| 20260509201234 | 88 | 262 | 1.0 | 4.0 | 0.00 | 0.00 | 0.00 | 66 | 1011.4 |
| 20260509201132 | 88 | 262 | 2.0 | 4.0 | 0.00 | 0.00 | 0.00 | 66 | 1011.4 |
| 20260509201033 | 88 | 262 | 2.0 | 5.0 | 0.00 | 0.00 | 0.00 | 64 | 1011.4 |
| 20260509200931 | 88 | 262 | 1.0 | 6.0 | 0.00 | 0.00 | 0.00 | 67 | 1011.4 |
| 20260509200834 | 88 | 262 | 2.0 | 6.0 | 0.00 | 0.00 | 0.00 | 66 | 1011.4 |
| 20260509200731 | 88 | 262 | 3.0 | 6.0 | 0.00 | 0.00 | 0.00 | 65 | 1011.4 |
| 20260509200632 | 88 | 251 | 2.0 | 6.0 | 0.00 | 0.00 | 0.00 | 64 | 1011.5 |
| 20260509200532 | 88 | 251 | 1.0 | 6.0 | 0.00 | 0.00 | 0.00 | 66 | 1011.5 |
| 20260509200434 | 88 | 251 | 1.0 | 6.0 | 0.00 | 0.00 | 0.00 | 66 | 1011.5 |
| 20260509200332 | 88 | 251 | 2.0 | 6.0 | 0.00 | 0.00 | 0.00 | 68 | 1011.5 |
| 20260509200231 | 88 | 251 | 3.0 | 6.0 | 0.00 | 0.00 | 0.00 | 66 | 1011.5 |
| 20260509200133 | 88 | 251 | 4.0 | 6.0 | 0.00 | 0.00 | 0.00 | 65 | 1011.6 |
| 20260509200033 | 88 | 255 | 5.0 | 7.0 | 0.00 | 0.00 | 0.00 | 66 | 1011.6 |
| 20260509195933 | 0 | 0.0 | 7.0 | 0.00 | 0.00 | 0.00 | 1011.6 | ||
| 20260509195832 | 0 | 0.0 | 7.0 | 0.00 | 0.00 | 0.00 | 1011.6 | ||
| 20260509195733 | 0 | 290 | 4.0 | 7.0 | 0.00 | 0.00 | 0.00 | 1011.6 | |
| 20260509195633 | 88 | 290 | 4.0 | 7.0 | 0.00 | 0.00 | 0.00 | 66 | 1011.7 |
| 20260509195532 | 88 | 290 | 4.0 | 7.0 | 0.00 | 0.00 | 0.00 | 66 | 1011.7 |
| 20260509195432 | 88 | 290 | 4.0 | 7.0 | 0.00 | 0.00 | 0.00 | 66 | 1011.7 |
| 20260509195332 | 88 | 290 | 4.0 | 7.0 | 0.00 | 0.00 | 0.00 | 66 | 1011.7 |
| 20260509195232 | 88 | 272 | 4.0 | 7.0 | 0.00 | 0.00 | 0.00 | 66 | 1011.7 |
| 20260509195131 | 88 | 271 | 5.0 | 7.0 | 0.00 | 0.00 | 0.00 | 66 | 1011.7 |
| 20260509195031 | 88 | 254 | 3.0 | 6.0 | 0.00 | 0.00 | 0.00 | 67 | 1011.6 |
| 20260509194932 | 88 | 258 | 2.0 | 6.0 | 0.00 | 0.00 | 0.00 | 67 | 1011.7 |
| 20260509194831 | 88 | 227 | 1.0 | 6.0 | 0.00 | 0.00 | 0.00 | 67 | 1011.6 |
| 20260509194732 | 88 | 227 | 1.0 | 6.0 | 0.00 | 0.00 | 0.00 | 66 | 1011.5 |
| 20260509194632 | 88 | 209 | 2.0 | 6.0 | 0.00 | 0.00 | 0.00 | 67 | 1011.6 |
| 20260509194532 | 88 | 209 | 2.0 | 6.0 | 0.00 | 0.00 | 0.00 | 67 | 1011.6 |
| 20260509194432 | 88 | 209 | 2.0 | 7.0 | 0.00 | 0.00 | 0.00 | 67 | 1011.7 |
| 20260509194331 | 88 | 210 | 2.0 | 7.0 | 0.00 | 0.00 | 0.00 | 67 | 1011.7 |
| 20260509194231 | 88 | 254 | 2.0 | 7.0 | 0.00 | 0.00 | 0.00 | 67 | 1011.7 |
| 20260509194132 | 88 | 254 | 2.0 | 7.0 | 0.00 | 0.00 | 0.00 | 66 | 1011.7 |
| 20260509194032 | 88 | 329 | 3.0 | 7.0 | 0.00 | 0.00 | 0.00 | 66 | 1011.8 |
| 20260509193933 | 88 | 285 | 4.0 | 7.0 | 0.00 | 0.00 | 0.00 | 66 | 1011.7 |
| 20260509193832 | 87 | 268 | 3.0 | 7.0 | 0.00 | 0.00 | 0.00 | 67 | 1011.8 |
| 20260509193731 | 87 | 264 | 3.0 | 7.0 | 0.00 | 0.00 | 0.00 | 67 | 1011.8 |
| 20260509193633 | 87 | 254 | 4.0 | 7.0 | 0.00 | 0.00 | 0.00 | 67 | 1011.8 |
| 20260509193531 | 87 | 285 | 6.0 | 7.0 | 0.00 | 0.00 | 0.00 | 67 | 1011.8 |
| 20260509193429 | 87 | 255 | 4.0 | 7.0 | 0.00 | 0.00 | 0.00 | 66 | 1011.8 |
| 20260509193325 | 87 | 274 | 1.0 | 5.0 | 0.00 | 0.01 | 0.00 | 67 | 1011.9 |
| 20260509193223 | 87 | 274 | 1.0 | 5.0 | 0.00 | 0.01 | 0.00 | 67 | 1011.8 |
| 20260509193124 | 87 | 274 | 2.0 | 5.0 | 0.00 | 0.01 | 0.00 | 69 | 1011.9 |
| 20260509193022 | 87 | 274 | 2.0 | 5.0 | 0.00 | 0.01 | 0.00 | 71 | 1011.9 |
| 20260509192924 | 87 | 274 | 1.0 | 5.0 | 0.00 | 0.01 | 0.00 | 71 | 1011.9 |
| 20260509192823 | 87 | 274 | 1.0 | 5.0 | 0.00 | 0.01 | 0.00 | 69 | 1011.9 |
| 20260509192724 | 87 | 274 | 2.0 | 5.0 | 0.00 | 0.01 | 0.00 | 69 | 1011.9 |
| 20260509192623 | 87 | 274 | 4.0 | 5.0 | 0.00 | 0.01 | 0.00 | 69 | 1012.0 |
| 20260509192523 | 87 | 272 | 3.0 | 5.0 | 0.00 | 0.01 | 0.00 | 70 | 1011.9 |
| 20260509192424 | 87 | 269 | 2.0 | 5.0 | 0.00 | 0.01 | 0.00 | 70 | 1011.9 |
| 20260509192323 | 87 | 274 | 3.0 | 5.0 | 0.00 | 0.01 | 0.00 | 70 | 1011.9 |
| 20260509192222 | 87 | 275 | 4.0 | 5.0 | 0.00 | 0.01 | 0.00 | 69 | 1011.9 |
| 20260509192124 | 87 | 274 | 4.0 | 5.0 | 0.00 | 0.01 | 0.00 | 69 | 1011.9 |
| 20260509192023 | 87 | 261 | 4.0 | 5.0 | 0.00 | 0.01 | 0.00 | 70 | 1011.8 |
| 20260509191922 | 87 | 259 | 4.0 | 5.0 | 0.00 | 0.01 | 0.00 | 70 | 1011.9 |
| 20260509191823 | 87 | 266 | 4.0 | 4.0 | 0.00 | 0.01 | 0.00 | 71 | 1011.9 |
| 20260509191723 | 86 | 268 | 2.0 | 4.0 | 0.00 | 0.01 | 0.00 | 71 | 1011.9 |
| 20260509191623 | 86 | 268 | 2.0 | 4.0 | 0.00 | 0.01 | 0.00 | 71 | 1012.0 |
| 20260509191523 | 86 | 268 | 2.0 | 4.0 | 0.00 | 0.01 | 0.00 | 71 | 1012.0 |
| 20260509191425 | 86 | 274 | 2.0 | 4.0 | 0.00 | 0.01 | 0.00 | 72 | 1012.1 |
| 20260509191324 | 86 | 23 | 2.0 | 4.0 | 0.00 | 0.01 | 0.00 | 71 | 1012.0 |
| 20260509191225 | 86 | 23 | 2.0 | 4.0 | 0.00 | 0.01 | 0.00 | 72 | 1012.1 |
| 20260509191122 | 86 | 23 | 1.0 | 4.0 | 0.00 | 0.01 | 0.00 | 71 | 1012.1 |
| 20260509191023 | 86 | 27 | 1.0 | 5.0 | 0.00 | 0.01 | 0.00 | 71 | 1012.1 |
| 20260509190924 | 86 | 27 | 1.0 | 5.0 | 0.00 | 0.01 | 0.00 | 71 | 1012.1 |
| 20260509190824 | 86 | 27 | 1.0 | 5.0 | 0.00 | 0.01 | 0.00 | 71 | 1012.1 |
| 20260509190723 | 86 | 27 | 1.0 | 5.0 | 0.00 | 0.01 | 0.00 | 71 | 1012.1 |
| 20260509190622 | 86 | 25 | 0.0 | 7.0 | 0.00 | 0.01 | 0.00 | 70 | 1012.1 |
| 20260509190522 | 86 | 25 | 1.0 | 7.0 | 0.00 | 0.01 | 0.00 | 71 | 1012.2 |
| 20260509190422 | 86 | 25 | 2.0 | 7.0 | 0.00 | 0.01 | 0.00 | 72 | 1012.2 |
| 20260509190324 | 86 | 8 | 2.0 | 7.0 | 0.00 | 0.01 | 0.00 | 71 | 1012.1 |
| 20260509190222 | 86 | 0 | 3.0 | 7.0 | 0.00 | 0.01 | 0.00 | 72 | 1012.2 |
| 20260509190123 | 86 | 0 | 2.0 | 7.0 | 0.00 | 0.01 | 0.00 | 71 | 1012.3 |
| 20260509190022 | 86 | 321 | 2.0 | 7.0 | 0.00 | 0.01 | 0.00 | 71 | 1012.3 |
| 20260509185923 | 86 | 279 | 3.0 | 7.0 | 0.00 | 0.01 | 0.00 | 71 | 1012.2 |
| 20260509185811 | 86 | 279 | 4.0 | 7.0 | 0.00 | 0.01 | 0.00 | 70 | 1012.2 |
| 20260509185711 | 87 | 279 | 5.0 | 7.0 | 0.00 | 0.01 | 0.00 | 71 | 1012.1 |
| 20260509185603 | 87 | 268 | 5.0 | 6.0 | 0.00 | 0.01 | 0.00 | 70 | 1012.1 |
| 20260509185505 | 86 | 283 | 4.0 | 6.0 | 0.00 | 0.01 | 0.00 | 70 | 1012.1 |
| 20260509185402 | 86 | 272 | 3.0 | 5.0 | 0.00 | 0.01 | 0.00 | 72 | 1012.1 |
| 20260509185306 | 86 | 266 | 1.0 | 5.0 | 0.00 | 0.01 | 0.00 | 72 | 1012.1 |
| 20260509185202 | 86 | 278 | 0.0 | 0.0 | 0.00 | 0.01 | 0.00 | 72 | 1012.2 |
| 20260509185102 | 86 | 278 | 0.0 | 2.0 | 0.00 | 0.01 | 0.00 | 72 | 1012.2 |
| 20260509185005 | 86 | 278 | 0.0 | 2.0 | 0.00 | 0.01 | 0.00 | 73 | 1012.2 |
| 20260509184902 | 86 | 278 | 0.0 | 2.0 | 0.00 | 0.01 | 0.00 | 74 | 1012.3 |
| 20260509184802 | 86 | 257 | 0.0 | 2.0 | 0.00 | 0.01 | 0.00 | 74 | 1012.3 |
| 20260509184704 | 86 | 257 | 0.0 | 2.0 | 0.00 | 0.01 | 0.00 | 76 | 1012.2 |
| 20260509184603 | 85 | 257 | 0.0 | 2.0 | 0.00 | 0.01 | 0.00 | 76 | 1012.3 |
| 20260509184505 | 85 | 257 | 0.0 | 4.0 | 0.00 | 0.01 | 0.00 | 76 | 1012.1 |
| 20260509184402 | 85 | 257 | 0.0 | 4.0 | 0.00 | 0.01 | 0.00 | 75 | 1012.2 |
| 20260509184304 | 85 | 257 | 0.0 | 4.0 | 0.00 | 0.01 | 0.00 | 75 | 1012.1 |
| 20260509184202 | 85 | 257 | 1.0 | 4.0 | 0.00 | 0.01 | 0.00 | 77 | 1012.2 |
| 20260509184102 | 85 | 257 | 1.0 | 4.0 | 0.00 | 0.01 | 0.00 | 77 | 1012.1 |
| 20260509184003 | 85 | 258 | 1.0 | 4.0 | 0.00 | 0.01 | 0.00 | 77 | 1012.2 |
| 20260509183903 | 85 | 258 | 1.0 | 4.0 | 0.00 | 0.01 | 0.00 | 77 | 1012.3 |
| 20260509183802 | 85 | 259 | 2.0 | 4.0 | 0.00 | 0.01 | 0.00 | 76 | 1012.2 |
| 20260509183702 | 85 | 254 | 2.0 | 4.0 | 0.00 | 0.01 | 0.00 | 77 | 1012.3 |
| 20260509183602 | 85 | 254 | 2.0 | 5.0 | 0.00 | 0.01 | 0.00 | 77 | 1012.3 |
| 20260509183503 | 85 | 278 | 1.0 | 5.0 | 0.00 | 0.01 | 0.00 | 75 | 1012.3 |
| 20260509183404 | 85 | 282 | 0.0 | 5.0 | 0.00 | 0.01 | 0.00 | 76 | 1012.4 |
| 20260509183303 | 85 | 282 | 1.0 | 5.0 | 0.00 | 0.01 | 0.00 | 75 | 1012.3 |
| 20260509183203 | 85 | 282 | 1.0 | 5.0 | 0.00 | 0.01 | 0.00 | 74 | 1012.3 |
| 20260509183103 | 85 | 279 | 0.0 | 5.0 | 0.00 | 0.01 | 0.00 | 74 | 1012.4 |
| 20260509183004 | 85 | 281 | 2.0 | 5.0 | 0.00 | 0.01 | 0.00 | 77 | 1012.4 |
| 20260509182904 | 85 | 281 | 2.0 | 5.0 | 0.00 | 0.01 | 0.00 | 77 | 1012.5 |
| 20260509182802 | 85 | 281 | 3.0 | 5.0 | 0.00 | 0.01 | 0.00 | 75 | 1012.5 |
| 20260509182703 | 85 | 279 | 2.0 | 5.0 | 0.00 | 0.01 | 0.00 | 75 | 1012.5 |
| 20260509182603 | 85 | 314 | 1.0 | 4.0 | 0.00 | 0.01 | 0.00 | 76 | 1012.5 |
| 20260509182502 | 85 | 314 | 1.0 | 4.0 | 0.00 | 0.01 | 0.00 | 77 | 1012.5 |
| 20260509182402 | 85 | 314 | 1.0 | 4.0 | 0.00 | 0.01 | 0.00 | 78 | 1012.5 |
| 20260509182306 | 85 | 320 | 1.0 | 4.0 | 0.00 | 0.01 | 0.00 | 76 | 1012.6 |
| 20260509182202 | 85 | 320 | 1.0 | 4.0 | 0.00 | 0.01 | 0.00 | 76 | 1012.5 |
| 20260509182103 | 85 | 103 | 1.0 | 4.0 | 0.00 | 0.01 | 0.00 | 75 | 1012.6 |
| 20260509182003 | 85 | 103 | 1.0 | 4.0 | 0.00 | 0.01 | 0.00 | 75 | 1012.5 |
| 20260509181902 | 85 | 347 | 2.0 | 4.0 | 0.00 | 0.01 | 0.00 | 75 | 1012.6 |
| 20260509181801 | 85 | 130 | 1.0 | 6.0 | 0.00 | 0.01 | 0.00 | 75 | 1012.6 |
| 20260509181702 | 85 | 252 | 1.0 | 6.0 | 0.00 | 0.01 | 0.00 | 74 | 1012.6 |
| 20260509181603 | 85 | 3 | 2.0 | 6.0 | 0.00 | 0.01 | 0.00 | 75 | 1012.6 |
| 20260509181504 | 85 | 3 | 2.0 | 6.0 | 0.00 | 0.01 | 0.00 | 76 | 1012.7 |
| 20260509181405 | 85 | 120 | 2.0 | 6.0 | 0.00 | 0.01 | 0.00 | 75 | 1012.7 |
| 20260509181302 | 85 | 116 | 2.0 | 6.0 | 0.00 | 0.01 | 0.00 | 77 | 1012.7 |
| 20260509181202 | 85 | 169 | 2.0 | 6.0 | 0.00 | 0.01 | 0.00 | 76 | 1012.7 |
| 20260509181103 | 85 | 134 | 2.0 | 6.0 | 0.00 | 0.01 | 0.00 | 77 | 1012.7 |
| 20260509181005 | 85 | 169 | 3.0 | 6.0 | 0.00 | 0.01 | 0.00 | 75 | 1012.8 |
| 20260509180903 | 85 | 168 | 3.0 | 6.0 | 0.00 | 0.01 | 0.00 | 74 | 1012.8 |
| 20260509180802 | 85 | 299 | 2.0 | 6.0 | 0.00 | 0.01 | 0.00 | 76 | 1012.9 |
| 20260509180701 | 85 | 327 | 2.0 | 6.0 | 0.00 | 0.01 | 0.00 | 76 | 1012.9 |
| 20260509180603 | 85 | 182 | 1.0 | 6.0 | 0.00 | 0.01 | 0.00 | 74 | 1012.9 |
| 20260509180504 | 85 | 62 | 2.0 | 6.0 | 0.00 | 0.01 | 0.00 | 75 | 1013.0 |
| 20260509180403 | 85 | 62 | 2.0 | 6.0 | 0.00 | 0.01 | 0.00 | 77 | 1013.0 |
| 20260509180302 | 85 | 62 | 2.0 | 6.0 | 0.00 | 0.01 | 0.00 | 75 | 1013.0 |
| 20260509180204 | 85 | 62 | 2.0 | 6.0 | 0.00 | 0.01 | 0.00 | 74 | 1013.0 |
| 20260509180003 | 85 | 65 | 3.0 | 7.0 | 0.00 | 0.01 | 0.00 | 75 | 1013.0 |
| 20260509175903 | 85 | 276 | 3.0 | 9.0 | 0.00 | 0.01 | 0.00 | 76 | 1013.0 |
| 20260509175803 | 85 | 124 | 2.0 | 9.0 | 0.00 | 0.01 | 0.00 | 76 | 1013.0 |
| 20260509175703 | 85 | 0 | 2.0 | 9.0 | 0.00 | 0.01 | 0.00 | 78 | 1013.1 |
| 20260509175604 | 85 | 288 | 3.0 | 9.0 | 0.00 | 0.01 | 0.00 | 76 | 1013.0 |
| 20260509175505 | 85 | 286 | 3.0 | 9.0 | 0.00 | 0.01 | 0.00 | 76 | 1013.1 |
| 20260509175404 | 85 | 183 | 3.0 | 9.0 | 0.00 | 0.01 | 0.00 | 76 | 1013.1 |
| 20260509175306 | 85 | 271 | 3.0 | 9.0 | 0.00 | 0.01 | 0.00 | 77 | 1013.1 |
| 20260509175204 | 85 | 309 | 3.0 | 9.0 | 0.00 | 0.01 | 0.00 | 76 | 1013.0 |
| 20260509175103 | 85 | 235 | 4.0 | 9.0 | 0.00 | 0.01 | 0.00 | 78 | 1013.1 |
| 20260509175004 | 85 | 300 | 6.0 | 9.0 | 0.00 | 0.01 | 0.00 | 76 | 1013.0 |
| 20260509174902 | 85 | 265 | 1.0 | 5.0 | 0.00 | 0.01 | 0.00 | 77 | 1012.9 |
| 20260509174804 | 85 | 134 | 1.0 | 5.0 | 0.00 | 0.01 | 0.00 | 77 | 1013.0 |
| 20260509174703 | 85 | 134 | 1.0 | 5.0 | 0.00 | 0.01 | 0.00 | 78 | 1013.0 |
| 20260509174602 | 85 | 145 | 1.0 | 5.0 | 0.00 | 0.01 | 0.00 | 77 | 1013.0 |
| 20260509174504 | 85 | 145 | 2.0 | 5.0 | 0.00 | 0.01 | 0.00 | 78 | 1013.1 |
| 20260509174403 | 85 | 145 | 2.0 | 5.0 | 0.00 | 0.01 | 0.00 | 81 | 1013.1 |
| 20260509174303 | 85 | 159 | 2.0 | 5.0 | 0.00 | 0.01 | 0.00 | 78 | 1013.2 |
| 20260509174205 | 85 | 295 | 2.0 | 4.0 | 0.00 | 0.01 | 0.00 | 80 | 1013.1 |
| 20260509174102 | 85 | 262 | 2.0 | 4.0 | 0.00 | 0.01 | 0.00 | 79 | 1013.1 |
| 20260509174003 | 85 | 251 | 2.0 | 4.0 | 0.00 | 0.01 | 0.00 | 79 | 1013.2 |
| 20260509173902 | 85 | 251 | 1.0 | 4.0 | 0.00 | 0.01 | 0.00 | 82 | 1013.2 |
| 20260509173804 | 85 | 110 | 1.0 | 4.0 | 0.00 | 0.01 | 0.00 | 80 | 1013.2 |
| 20260509173703 | 84 | 110 | 2.0 | 4.0 | 0.00 | 0.01 | 0.00 | 82 | 1013.2 |
| 20260509173602 | 84 | 111 | 1.0 | 4.0 | 0.00 | 0.01 | 0.00 | 81 | 1013.2 |
| 20260509173504 | 84 | 116 | 1.0 | 4.0 | 0.00 | 0.01 | 0.00 | 81 | 1013.2 |
| 20260509173403 | 84 | 117 | 2.0 | 4.0 | 0.00 | 0.01 | 0.00 | 81 | 1013.2 |
| 20260509173303 | 84 | 140 | 2.0 | 4.0 | 0.00 | 0.01 | 0.00 | 82 | 1013.1 |
| 20260509173201 | 84 | 93 | 1.0 | 3.0 | 0.00 | 0.01 | 0.00 | 83 | 1013.1 |
| 20260509173103 | 84 | 99 | 1.0 | 3.0 | 0.00 | 0.01 | 0.00 | 83 | 1013.2 |
| 20260509173002 | 83 | 96 | 2.0 | 3.0 | 0.00 | 0.01 | 0.00 | 82 | 1013.2 |
| 20260509172902 | 83 | 8 | 2.0 | 3.0 | 0.00 | 0.01 | 0.00 | 82 | 1013.2 |
| 20260509172804 | 83 | 237 | 1.0 | 3.0 | 0.00 | 0.01 | 0.00 | 83 | 1013.1 |
| 20260509172703 | 83 | 329 | 2.0 | 3.0 | 0.00 | 0.01 | 0.00 | 83 | 1013.2 |
| 20260509172602 | 83 | 127 | 1.0 | 3.0 | 0.00 | 0.01 | 0.00 | 83 | 1013.2 |
| 20260509172503 | 83 | 173 | 1.0 | 3.0 | 0.00 | 0.01 | 0.00 | 85 | 1013.2 |
| 20260509172403 | 83 | 176 | 1.0 | 3.0 | 0.00 | 0.01 | 0.00 | 85 | 1013.3 |
| 20260509172306 | 83 | 61 | 1.0 | 3.0 | 0.00 | 0.01 | 0.00 | 85 | 1013.3 |
| 20260509172202 | 83 | 87 | 1.0 | 3.0 | 0.00 | 0.01 | 0.00 | 84 | 1013.2 |
| 20260509172103 | 83 | 102 | 1.0 | 3.0 | 0.00 | 0.01 | 0.00 | 85 | 1013.3 |
| 20260509172002 | 83 | 102 | 2.0 | 5.0 | 0.00 | 0.01 | 0.00 | 85 | 1013.3 |
| 20260509171902 | 83 | 71 | 2.0 | 5.0 | 0.00 | 0.01 | 0.00 | 83 | 1013.3 |
| 20260509171803 | 83 | 283 | 2.0 | 5.0 | 0.00 | 0.01 | 0.00 | 84 | 1013.3 |
| 20260509171702 | 83 | 266 | 2.0 | 5.0 | 0.00 | 0.01 | 0.00 | 85 | 1013.4 |
| 20260509171602 | 83 | 266 | 2.0 | 5.0 | 0.00 | 0.01 | 0.00 | 85 | 1013.4 |
| 20260509171502 | 83 | 231 | 2.0 | 5.0 | 0.00 | 0.01 | 0.00 | 86 | 1013.3 |
| 20260509171403 | 83 | 41 | 1.0 | 5.0 | 0.00 | 0.01 | 0.00 | 85 | 1013.3 |
| 20260509171302 | 83 | 30 | 1.0 | 5.0 | 0.00 | 0.01 | 0.00 | 87 | 1013.4 |
| 20260509171203 | 82 | 162 | 2.0 | 5.0 | 0.00 | 0.01 | 0.00 | 86 | 1013.3 |
| 20260509171102 | 82 | 161 | 2.0 | 5.0 | 0.00 | 0.01 | 0.00 | 86 | 1013.3 |
| 20260509171003 | 82 | 133 | 1.0 | 4.0 | 0.00 | 0.01 | 0.00 | 87 | 1013.3 |
| 20260509170902 | 82 | 109 | 1.0 | 2.0 | 0.00 | 0.01 | 0.00 | 87 | 1013.3 |
| 20260509170804 | 81 | 109 | 1.0 | 2.0 | 0.00 | 0.01 | 0.00 | 88 | 1013.3 |
| 20260509170703 | 81 | 317 | 1.0 | 2.0 | 0.00 | 0.01 | 0.00 | 89 | 1013.4 |
| 20260509170602 | 81 | 317 | 1.0 | 2.0 | 0.00 | 0.01 | 0.00 | 89 | 1013.4 |
| 20260509170502 | 80 | 317 | 1.0 | 2.0 | 0.00 | 0.01 | 0.00 | 90 | 1013.4 |
| 20260509170404 | 80 | 317 | 1.0 | 2.0 | 0.00 | 0.01 | 0.00 | 89 | 1013.5 |
| 20260509170303 | 80 | 316 | 0.0 | 2.0 | 0.00 | 0.01 | 0.00 | 90 | 1013.4 |
| 20260509170203 | 80 | 316 | 0.0 | 2.0 | 0.00 | 0.01 | 0.00 | 91 | 1013.5 |
| 20260509170103 | 80 | 316 | 0.0 | 2.0 | 0.00 | 0.01 | 0.00 | 90 | 1013.5 |
| 20260509170004 | 80 | 316 | 0.0 | 2.0 | 0.00 | 0.01 | 0.00 | 89 | 1013.5 |
| 20260509165902 | 80 | 316 | 0.0 | 2.0 | 0.00 | 0.01 | 0.00 | 89 | 1013.6 |
| 20260509165802 | 80 | 316 | 0.0 | 2.0 | 0.00 | 0.01 | 0.00 | 88 | 1013.6 |
| 20260509165703 | 80 | 316 | 1.0 | 2.0 | 0.00 | 0.01 | 0.00 | 89 | 1013.6 |
| 20260509165604 | 80 | 316 | 1.0 | 2.0 | 0.00 | 0.01 | 0.00 | 88 | 1013.6 |
| 20260509165502 | 80 | 316 | 1.0 | 2.0 | 0.00 | 0.01 | 0.00 | 88 | 1013.6 |
| 20260509165403 | 80 | 316 | 0.0 | 1.0 | 0.00 | 0.01 | 0.00 | 89 | 1013.6 |
| 20260509165306 | 80 | 316 | 0.0 | 1.0 | 0.00 | 0.01 | 0.00 | 89 | 1013.7 |
| 20260509165203 | 80 | 261 | 0.0 | 1.0 | 0.00 | 0.01 | 0.00 | 89 | 1013.6 |
| 20260509165102 | 80 | 261 | 0.0 | 1.0 | 0.00 | 0.01 | 0.00 | 89 | 1013.6 |
| 20260509165004 | 80 | 261 | 0.0 | 1.0 | 0.00 | 0.01 | 0.00 | 90 | 1013.6 |
| 20260509164904 | 80 | 261 | 0.0 | 1.0 | 0.00 | 0.01 | 0.00 | 90 | 1013.5 |
| 20260509164802 | 80 | 261 | 0.0 | 2.0 | 0.00 | 0.01 | 0.00 | 89 | 1013.6 |
| 20260509164703 | 80 | 261 | 0.0 | 2.0 | 0.00 | 0.01 | 0.00 | 89 | 1013.5 |
| 20260509164603 | 80 | 261 | 0.0 | 2.0 | 0.00 | 0.01 | 0.00 | 90 | 1013.4 |
| 20260509164502 | 80 | 261 | 0.0 | 3.0 | 0.00 | 0.01 | 0.00 | 90 | 1013.5 |
| 20260509164403 | 80 | 261 | 0.0 | 3.0 | 0.00 | 0.01 | 0.00 | 89 | 1013.6 |
| 20260509164304 | 80 | 261 | 0.0 | 3.0 | 0.00 | 0.01 | 0.00 | 89 | 1013.6 |
| 20260509164204 | 80 | 261 | 0.0 | 3.0 | 0.00 | 0.01 | 0.00 | 89 | 1013.6 |
| 20260509164103 | 80 | 261 | 0.0 | 3.0 | 0.00 | 0.01 | 0.00 | 89 | 1013.7 |
| 20260509164003 | 80 | 261 | 1.0 | 3.0 | 0.00 | 0.01 | 0.00 | 88 | 1013.6 |
| 20260509163902 | 80 | 261 | 2.0 | 3.0 | 0.00 | 0.01 | 0.00 | 87 | 1013.6 |
| 20260509163804 | 80 | 261 | 1.0 | 3.0 | 0.00 | 0.01 | 0.00 | 87 | 1013.6 |
| 20260509163704 | 80 | 261 | 2.0 | 3.0 | 0.00 | 0.01 | 0.00 | 87 | 1013.6 |
| 20260509163602 | 80 | 261 | 2.0 | 3.0 | 0.00 | 0.01 | 0.00 | 87 | 1013.6 |
| 20260509163503 | 80 | 261 | 1.0 | 3.0 | 0.00 | 0.01 | 0.00 | 87 | 1013.6 |
| 20260509163401 | 80 | 261 | 1.0 | 3.0 | 0.00 | 0.01 | 0.00 | 87 | 1013.5 |
| 20260509163303 | 80 | 261 | 2.0 | 3.0 | 0.00 | 0.01 | 0.00 | 87 | 1013.5 |
| 20260509163202 | 80 | 261 | 2.0 | 3.0 | 0.00 | 0.01 | 0.00 | 87 | 1013.6 |
| 20260509163102 | 80 | 261 | 1.0 | 3.0 | 0.00 | 0.01 | 0.00 | 88 | 1013.6 |
| 20260509163005 | 80 | 261 | 1.0 | 3.0 | 0.00 | 0.01 | 0.00 | 88 | 1013.5 |
| 20260509162903 | 80 | 261 | 1.0 | 3.0 | 0.00 | 0.01 | 0.00 | 88 | 1013.6 |
| 20260509162803 | 80 | 261 | 1.0 | 3.0 | 0.00 | 0.01 | 0.00 | 88 | 1013.5 |
| 20260509162702 | 80 | 261 | 1.0 | 3.0 | 0.00 | 0.01 | 0.00 | 88 | 1013.6 |
| 20260509162604 | 80 | 261 | 1.0 | 4.0 | 0.00 | 0.01 | 0.00 | 88 | 1013.5 |
| 20260509162503 | 80 | 261 | 2.0 | 4.0 | 0.00 | 0.01 | 0.00 | 88 | 1013.6 |
| 20260509162403 | 80 | 261 | 2.0 | 4.0 | 0.00 | 0.01 | 0.00 | 88 | 1013.6 |
| 20260509162302 | 80 | 261 | 2.0 | 4.0 | 0.00 | 0.01 | 0.00 | 88 | 1013.6 |
| 20260509162203 | 80 | 261 | 2.0 | 4.0 | 0.00 | 0.01 | 0.00 | 87 | 1013.6 |
| 20260509162102 | 80 | 261 | 2.0 | 4.0 | 0.00 | 0.01 | 0.00 | 88 | 1013.6 |
| 20260509162003 | 80 | 261 | 2.0 | 4.0 | 0.00 | 0.01 | 0.00 | 88 | 1013.6 |
| 20260509161902 | 80 | 261 | 2.0 | 4.0 | 0.00 | 0.01 | 0.00 | 87 | 1013.7 |
| 20260509161803 | 80 | 261 | 3.0 | 4.0 | 0.00 | 0.01 | 0.00 | 88 | 1013.7 |
| 20260509161703 | 80 | 261 | 3.0 | 4.0 | 0.00 | 0.01 | 0.00 | 89 | 1013.7 |
| 20260509161604 | 80 | 261 | 2.0 | 3.0 | 0.00 | 0.01 | 0.00 | 88 | 1013.8 |
| 20260509161503 | 80 | 261 | 1.0 | 2.0 | 0.00 | 0.01 | 0.00 | 88 | 1013.8 |
| 20260509161403 | 80 | 261 | 0.0 | 3.0 | 0.00 | 0.01 | 0.00 | 88 | 1013.8 |
| 20260509161302 | 80 | 261 | 0.0 | 3.0 | 0.00 | 0.01 | 0.00 | 88 | 1013.7 |
| 20260509161203 | 80 | 261 | 0.0 | 4.0 | 0.00 | 0.01 | 0.00 | 89 | 1013.7 |
| 20260509161103 | 80 | 261 | 0.0 | 4.0 | 0.00 | 0.01 | 0.00 | 89 | 1013.7 |
| 20260509161002 | 79 | 261 | 0.0 | 4.0 | 0.00 | 0.01 | 0.00 | 88 | 1013.7 |
| 20260509160904 | 79 | 261 | 0.0 | 4.0 | 0.00 | 0.01 | 0.00 | 88 | 1013.7 |
| 20260509160802 | 79 | 261 | 0.0 | 4.0 | 0.00 | 0.01 | 0.00 | 88 | 1013.6 |
| 20260509160704 | 79 | 261 | 2.0 | 4.0 | 0.00 | 0.01 | 0.00 | 88 | 1013.6 |
| 20260509160603 | 79 | 261 | 2.0 | 4.0 | 0.00 | 0.01 | 0.00 | 88 | 1013.5 |
| 20260509160502 | 79 | 261 | 2.0 | 4.0 | 0.00 | 0.01 | 0.00 | 88 | 1013.5 |
| 20260509160403 | 79 | 261 | 2.0 | 4.0 | 0.00 | 0.01 | 0.00 | 89 | 1013.6 |
| 20260509160305 | 80 | 261 | 3.0 | 4.0 | 0.00 | 0.01 | 0.00 | 89 | 1013.5 |
| 20260509160203 | 80 | 262 | 2.0 | 3.0 | 0.00 | 0.01 | 0.00 | 89 | 1013.5 |
| 20260509160104 | 79 | 44 | 0.0 | 2.0 | 0.00 | 0.01 | 0.00 | 90 | 1013.6 |
| 20260509160002 | 79 | 44 | 0.0 | 2.0 | 0.00 | 0.01 | 0.00 | 90 | 1013.7 |
| 20260509155904 | 79 | 44 | 0.0 | 2.0 | 0.00 | 0.01 | 0.00 | 90 | 1013.6 |
| 20260509155802 | 79 | 44 | 1.0 | 2.0 | 0.00 | 0.01 | 0.00 | 90 | 1013.7 |
| 20260509155702 | 79 | 44 | 1.0 | 2.0 | 0.00 | 0.01 | 0.00 | 90 | 1013.6 |
| 20260509155603 | 79 | 44 | 1.0 | 2.0 | 0.00 | 0.01 | 0.00 | 90 | 1013.7 |
| 20260509155502 | 79 | 44 | 1.0 | 3.0 | 0.00 | 0.01 | 0.00 | 90 | 1013.7 |
| 20260509155403 | 79 | 44 | 1.0 | 3.0 | 0.00 | 0.01 | 0.00 | 90 | 1013.6 |
| 20260509155306 | 79 | 44 | 1.0 | 3.0 | 0.00 | 0.01 | 0.00 | 90 | 1013.6 |
| 20260509155202 | 79 | 44 | 1.0 | 3.0 | 0.00 | 0.01 | 0.00 | 90 | 1013.6 |
| 20260509155102 | 79 | 44 | 1.0 | 3.0 | 0.00 | 0.01 | 0.00 | 90 | 1013.6 |
| 20260509155004 | 79 | 44 | 1.0 | 4.0 | 0.00 | 0.01 | 0.00 | 90 | 1013.6 |
| 20260509154903 | 79 | 44 | 1.0 | 4.0 | 0.00 | 0.01 | 0.00 | 91 | 1013.6 |
| 20260509154802 | 79 | 44 | 1.0 | 4.0 | 0.00 | 0.01 | 0.00 | 91 | 1013.7 |
| 20260509154704 | 79 | 44 | 1.0 | 4.0 | 0.00 | 0.01 | 0.00 | 91 | 1013.7 |
| 20260509154602 | 79 | 44 | 2.0 | 4.0 | 0.00 | 0.01 | 0.00 | 91 | 1013.6 |
| 20260509154504 | 79 | 44 | 1.0 | 4.0 | 0.00 | 0.01 | 0.00 | 91 | 1013.6 |
| 20260509154402 | 79 | 51 | 1.0 | 4.0 | 0.00 | 0.01 | 0.00 | 91 | 1013.6 |
| 20260509154303 | 79 | 51 | 1.0 | 4.0 | 0.00 | 0.01 | 0.00 | 91 | 1013.5 |
| 20260509154203 | 79 | 51 | 2.0 | 4.0 | 0.00 | 0.01 | 0.00 | 91 | 1013.5 |
| 20260509154103 | 79 | 51 | 2.0 | 4.0 | 0.00 | 0.01 | 0.00 | 91 | 1013.5 |
| 20260509154004 | 79 | 123 | 1.0 | 3.0 | 0.00 | 0.01 | 0.00 | 92 | 1013.4 |
| 20260509153904 | 78 | 123 | 0.0 | 3.0 | 0.00 | 0.01 | 0.00 | 92 | 1013.4 |
| 20260509153803 | 78 | 124 | 0.0 | 3.0 | 0.00 | 0.01 | 0.00 | 92 | 1013.4 |
| 20260509153703 | 79 | 124 | 0.0 | 3.0 | 0.00 | 0.01 | 0.00 | 93 | 1013.5 |
| 20260509153604 | 79 | 124 | 1.0 | 3.0 | 0.00 | 0.01 | 0.00 | 93 | 1013.6 |
| 20260509153502 | 79 | 124 | 1.0 | 3.0 | 0.00 | 0.01 | 0.00 | 93 | 1013.5 |
| 20260509153403 | 78 | 117 | 0.0 | 2.0 | 0.00 | 0.01 | 0.00 | 93 | 1013.6 |
| 20260509153304 | 78 | 116 | 1.0 | 2.0 | 0.00 | 0.01 | 0.00 | 94 | 1013.6 |
| 20260509153203 | 78 | 116 | 1.0 | 2.0 | 0.00 | 0.01 | 0.00 | 93 | 1013.6 |
| 20260509153103 | 78 | 116 | 1.0 | 2.0 | 0.00 | 0.01 | 0.00 | 93 | 1013.6 |
| 20260509153002 | 78 | 117 | 1.0 | 2.0 | 0.00 | 0.01 | 0.00 | 93 | 1013.6 |
| 20260509152903 | 78 | 117 | 1.0 | 2.0 | 0.00 | 0.01 | 0.00 | 93 | 1013.6 |
| 20260509152805 | 78 | 117 | 1.0 | 2.0 | 0.00 | 0.01 | 0.00 | 93 | 1013.6 |
| 20260509152703 | 78 | 123 | 0.0 | 2.0 | 0.00 | 0.01 | 0.00 | 94 | 1013.7 |
| 20260509152602 | 78 | 123 | 0.0 | 2.0 | 0.00 | 0.01 | 0.00 | 94 | 1013.7 |
| 20260509152504 | 78 | 123 | 0.0 | 2.0 | 0.00 | 0.01 | 0.00 | 94 | 1013.7 |
| 20260509152402 | 77 | 123 | 0.0 | 2.0 | 0.00 | 0.01 | 0.00 | 94 | 1013.7 |
| 20260509152306 | 77 | 123 | 0.0 | 2.0 | 0.00 | 0.01 | 0.00 | 94 | 1013.7 |
| 20260509152205 | 77 | 123 | 0.0 | 2.0 | 0.00 | 0.01 | 0.00 | 94 | 1013.7 |
| 20260509152102 | 77 | 123 | 0.0 | 2.0 | 0.00 | 0.01 | 0.00 | 94 | 1013.6 |
| 20260509152002 | 77 | 123 | 0.0 | 2.0 | 0.00 | 0.01 | 0.00 | 95 | 1013.6 |
| 20260509151902 | 77 | 130 | 0.0 | 0.0 | 0.00 | 0.01 | 0.00 | 95 | 1013.6 |
| 20260509151803 | 77 | 130 | 0.0 | 0.0 | 0.00 | 0.01 | 0.00 | 95 | 1013.7 |
| 20260509151701 | 77 | 130 | 0.0 | 0.0 | 0.00 | 0.01 | 0.00 | 95 | 1013.7 |
| 20260509151602 | 77 | 130 | 0.0 | 0.0 | 0.00 | 0.01 | 0.00 | 95 | 1013.7 |
| 20260509151504 | 77 | 130 | 0.0 | 0.0 | 0.00 | 0.01 | 0.00 | 95 | 1013.7 |
| 20260509151403 | 77 | 130 | 0.0 | 0.0 | 0.00 | 0.01 | 0.00 | 96 | 1013.7 |
| 20260509151304 | 77 | 130 | 0.0 | 1.0 | 0.00 | 0.01 | 0.00 | 95 | 1013.7 |
| 20260509151203 | 77 | 130 | 0.0 | 1.0 | 0.00 | 0.01 | 0.00 | 96 | 1013.7 |
| 20260509151103 | 77 | 130 | 0.0 | 1.0 | 0.00 | 0.01 | 0.00 | 96 | 1013.6 |
| 20260509151002 | 77 | 130 | 0.0 | 1.0 | 0.00 | 0.01 | 0.00 | 96 | 1013.6 |
| 20260509150902 | 77 | 130 | 0.0 | 1.0 | 0.00 | 0.01 | 0.00 | 96 | 1013.6 |
| 20260509150802 | 77 | 130 | 0.0 | 1.0 | 0.00 | 0.01 | 0.00 | 96 | 1013.5 |
| 20260509150703 | 77 | 130 | 0.0 | 1.0 | 0.00 | 0.01 | 0.00 | 96 | 1013.6 |
| 20260509150601 | 77 | 130 | 0.0 | 1.0 | 0.00 | 0.01 | 0.00 | 96 | 1013.5 |
| 20260509150501 | 77 | 130 | 0.0 | 1.0 | 0.00 | 0.01 | 0.00 | 96 | 1013.6 |
| 20260509150403 | 77 | 130 | 0.0 | 1.0 | 0.00 | 0.01 | 0.00 | 96 | 1013.5 |
| 20260509150302 | 77 | 130 | 0.0 | 1.0 | 0.00 | 0.01 | 0.00 | 96 | 1013.5 |
| 20260509150203 | 77 | 130 | 0.0 | 1.0 | 0.00 | 0.01 | 0.00 | 97 | 1013.6 |
| 20260509150104 | 77 | 131 | 0.0 | 1.0 | 0.00 | 0.01 | 0.00 | 97 | 1013.5 |
| 20260509150003 | 77 | 131 | 0.0 | 1.0 | 0.00 | 0.01 | 0.00 | 97 | 1013.5 |
| 20260509145904 | 76 | 131 | 0.0 | 1.0 | 0.00 | 0.01 | 0.00 | 97 | 1013.5 |
| 20260509145803 | 76 | 131 | 0.0 | 1.0 | 0.00 | 0.01 | 0.00 | 97 | 1013.5 |
| 20260509145704 | 76 | 130 | 0.0 | 1.0 | 0.00 | 0.01 | 0.00 | 97 | 1013.4 |
| 20260509145603 | 76 | 131 | 0.0 | 1.0 | 0.00 | 0.01 | 0.00 | 97 | 1013.4 |
| 20260509145502 | 76 | 131 | 0.0 | 1.0 | 0.00 | 0.01 | 0.00 | 97 | 1013.4 |
| 20260509145404 | 76 | 131 | 0.0 | 0.0 | 0.00 | 0.01 | 0.00 | 97 | 1013.3 |
| 20260509145305 | 76 | 131 | 0.0 | 0.0 | 0.00 | 0.01 | 0.00 | 97 | 1013.4 |
| 20260509145204 | 0 | 0.0 | 0.0 | 0.00 | 0.01 | 0.00 | 1013.3 | ||
| 20260509145103 | 0 | 0.0 | 0.0 | 0.00 | 0.01 | 0.00 | 1013.3 | ||
| 20260509145004 | 0 | 0.0 | 0.0 | 0.00 | 0.01 | 0.00 | 1013.3 | ||
| 20260509144903 | 76 | 131 | 0.0 | 0.0 | 0.00 | 0.01 | 0.00 | 98 | 1013.3 |
| 20260509144804 | 76 | 131 | 0.0 | 0.0 | 0.00 | 0.01 | 0.00 | 98 | 1013.3 |
| 20260509144704 | 76 | 131 | 0.0 | 0.0 | 0.00 | 0.01 | 0.00 | 98 | 1013.3 |
| 20260509144603 | 76 | 131 | 0.0 | 0.0 | 0.00 | 0.01 | 0.00 | 98 | 1013.3 |
| 20260509144504 | 76 | 131 | 0.0 | 1.0 | 0.00 | 0.01 | 0.00 | 98 | 1013.3 |
| 20260509144403 | 76 | 131 | 0.0 | 2.0 | 0.00 | 0.01 | 0.00 | 98 | 1013.4 |
| 20260509144303 | 76 | 131 | 0.0 | 2.0 | 0.00 | 0.01 | 0.00 | 98 | 1013.4 |
| 20260509144200 | 76 | 135 | 0.0 | 2.0 | 0.00 | 0.01 | 0.00 | 98 | 1013.4 |
| 20260509144100 | 76 | 135 | 0.0 | 2.0 | 0.00 | 0.01 | 0.00 | 98 | 1013.5 |
| 20260509143956 | 76 | 135 | 0.0 | 2.0 | 0.00 | 0.01 | 0.00 | 98 | 1013.5 |
| 20260509143856 | 76 | 137 | 0.0 | 2.0 | 0.00 | 0.01 | 0.00 | 98 | 1013.5 |
| 20260509143754 | 76 | 135 | 0.0 | 2.0 | 0.00 | 0.01 | 0.00 | 98 | 1013.5 |
| 20260509143647 | 76 | 135 | 0.0 | 2.0 | 0.00 | 0.01 | 0.00 | 98 | 1013.3 |
| 20260509143546 | 76 | 116 | 1.0 | 2.0 | 0.00 | 0.01 | 0.00 | 98 | 1013.3 |
| 20260509143437 | 76 | 41 | 0.0 | 1.0 | 0.00 | 0.01 | 0.00 | 98 | 1013.3 |
| 20260509143333 | 76 | 41 | 0.0 | 1.0 | 0.00 | 0.01 | 0.00 | 98 | 1013.3 |
| 20260509143231 | 76 | 41 | 0.0 | 1.0 | 0.00 | 0.01 | 0.00 | 98 | 1013.3 |
| 20260509143131 | 76 | 41 | 0.0 | 2.0 | 0.00 | 0.01 | 0.00 | 98 | 1013.4 |
| 20260509143031 | 76 | 41 | 0.0 | 2.0 | 0.00 | 0.01 | 0.00 | 98 | 1013.3 |
| 20260509142933 | 76 | 41 | 0.0 | 2.0 | 0.00 | 0.01 | 0.00 | 98 | 1013.2 |
| 20260509142832 | 76 | 41 | 0.0 | 2.0 | 0.00 | 0.01 | 0.00 | 98 | 1013.2 |
| 20260509142732 | 76 | 41 | 0.0 | 2.0 | 0.00 | 0.01 | 0.00 | 98 | 1013.2 |
| 20260509142632 | 76 | 41 | 0.0 | 2.0 | 0.00 | 0.01 | 0.00 | 98 | 1013.3 |
| 20260509142532 | 76 | 41 | 1.0 | 2.0 | 0.00 | 0.01 | 0.00 | 98 | 1013.3 |
| 20260509142432 | 76 | 41 | 1.0 | 2.0 | 0.00 | 0.01 | 0.00 | 98 | 1013.2 |
| 20260509142332 | 76 | 41 | 1.0 | 2.0 | 0.00 | 0.01 | 0.00 | 98 | 1013.1 |
| 20260509142229 | 76 | 41 | 1.0 | 2.0 | 0.00 | 0.01 | 0.00 | 98 | 1013.3 |
| 20260509142127 | 76 | 41 | 1.0 | 2.0 | 0.00 | 0.01 | 0.00 | 98 | 1013.2 |
| 20260509142026 | 76 | 41 | 0.0 | 1.0 | 0.00 | 0.01 | 0.00 | 98 | 1013.2 |
| 20260509141923 | 76 | 42 | 0.0 | 1.0 | 0.00 | 0.01 | 0.00 | 98 | 1013.2 |
| 20260509141822 | 76 | 47 | 0.0 | 1.0 | 0.00 | 0.01 | 0.00 | 98 | 1013.1 |
| 20260509141722 | 76 | 47 | 0.0 | 0.0 | 0.00 | 0.01 | 0.00 | 98 | 1013.2 |
| 20260509141617 | 76 | 54 | 0.0 | 1.0 | 0.00 | 0.01 | 0.00 | 98 | 1013.1 |
| 20260509141515 | 76 | 54 | 0.0 | 2.0 | 0.00 | 0.01 | 0.00 | 98 | 1013.0 |
| 20260509141415 | 76 | 54 | 0.0 | 2.0 | 0.00 | 0.01 | 0.00 | 98 | 1013.0 |
| 20260509141315 | 76 | 54 | 0.0 | 2.0 | 0.00 | 0.01 | 0.00 | 98 | 1012.9 |
| 20260509141215 | 76 | 54 | 0.0 | 2.0 | 0.00 | 0.01 | 0.00 | 98 | 1012.9 |
| 20260509141113 | 76 | 54 | 0.0 | 2.0 | 0.00 | 0.01 | 0.00 | 98 | 1012.9 |
| 20260509141014 | 76 | 54 | 0.0 | 2.0 | 0.00 | 0.01 | 0.00 | 98 | 1012.9 |
| 20260509140914 | 76 | 54 | 0.0 | 2.0 | 0.00 | 0.01 | 0.00 | 98 | 1012.9 |
| 20260509140813 | 76 | 54 | 0.0 | 2.0 | 0.00 | 0.01 | 0.00 | 98 | 1012.9 |
| 20260509140715 | 76 | 54 | 1.0 | 2.0 | 0.00 | 0.01 | 0.00 | 98 | 1012.8 |
| 20260509140614 | 76 | 54 | 1.0 | 2.0 | 0.00 | 0.01 | 0.00 | 98 | 1012.9 |
| 20260509140514 | 76 | 54 | 1.0 | 2.0 | 0.00 | 0.01 | 0.00 | 98 | 1012.9 |
| 20260509140413 | 76 | 54 | 1.0 | 2.0 | 0.00 | 0.01 | 0.00 | 98 | 1013.0 |
| 20260509140314 | 76 | 54 | 0.0 | 2.0 | 0.00 | 0.01 | 0.00 | 98 | 1013.0 |
| 20260509140215 | 76 | 54 | 0.0 | 2.0 | 0.00 | 0.01 | 0.00 | 98 | 1012.9 |
| 20260509140114 | 76 | 54 | 0.0 | 2.0 | 0.00 | 0.01 | 0.00 | 98 | 1012.8 |
| 20260509140014 | 76 | 54 | 1.0 | 2.0 | 0.00 | 0.01 | 0.00 | 98 | 1012.8 |
| 20260509135913 | 76 | 54 | 1.0 | 2.0 | 0.00 | 0.01 | 0.00 | 98 | 1012.7 |
| 20260509135813 | 76 | 54 | 0.0 | 2.0 | 0.00 | 0.01 | 0.00 | 98 | 1012.7 |
| 20260509135715 | 76 | 54 | 0.0 | 1.0 | 0.00 | 0.01 | 0.00 | 98 | 1012.7 |
| 20260509135613 | 76 | 54 | 0.0 | 1.0 | 0.00 | 0.01 | 0.00 | 98 | 1012.8 |
| 20260509135514 | 76 | 54 | 0.0 | 1.0 | 0.00 | 0.01 | 0.00 | 98 | 1012.8 |
| 20260509135413 | 76 | 37 | 0.0 | 1.0 | 0.00 | 0.01 | 0.00 | 98 | 1012.9 |
| 20260509135314 | 76 | 37 | 0.0 | 1.0 | 0.00 | 0.01 | 0.00 | 98 | 1012.8 |
| 20260509135214 | 76 | 37 | 0.0 | 1.0 | 0.00 | 0.01 | 0.00 | 98 | 1013.0 |
| 20260509135116 | 76 | 37 | 0.0 | 1.0 | 0.00 | 0.01 | 0.00 | 98 | 1013.0 |
| 20260509135015 | 76 | 37 | 0.0 | 2.0 | 0.00 | 0.01 | 0.00 | 98 | 1013.0 |
| 20260509134914 | 76 | 37 | 0.0 | 2.0 | 0.00 | 0.01 | 0.00 | 98 | 1013.0 |
| 20260509134814 | 76 | 37 | 0.0 | 2.0 | 0.00 | 0.01 | 0.00 | 98 | 1013.1 |
| 20260509134713 | 76 | 37 | 0.0 | 2.0 | 0.00 | 0.01 | 0.00 | 98 | 1013.1 |
| 20260509134615 | 76 | 37 | 0.0 | 2.0 | 0.00 | 0.01 | 0.00 | 98 | 1013.1 |
| 20260509134514 | 76 | 37 | 1.0 | 2.0 | 0.00 | 0.01 | 0.00 | 98 | 1013.2 |
| 20260509134413 | 76 | 37 | 0.0 | 2.0 | 0.00 | 0.01 | 0.00 | 98 | 1013.2 |
| 20260509134314 | 76 | 37 | 0.0 | 2.0 | 0.00 | 0.01 | 0.00 | 98 | 1013.3 |
| 20260509134213 | 76 | 37 | 0.0 | 2.0 | 0.00 | 0.01 | 0.00 | 98 | 1013.2 |
| 20260509134113 | 76 | 37 | 0.0 | 2.0 | 0.00 | 0.01 | 0.00 | 98 | 1013.2 |
| 20260509134015 | 76 | 37 | 0.0 | 1.0 | 0.00 | 0.01 | 0.00 | 98 | 1013.2 |
| 20260509133915 | 76 | 37 | 0.0 | 2.0 | 0.00 | 0.01 | 0.00 | 98 | 1013.2 |
| 20260509133814 | 76 | 37 | 0.0 | 2.0 | 0.00 | 0.01 | 0.00 | 98 | 1013.2 |
| 20260509133713 | 76 | 37 | 0.0 | 2.0 | 0.00 | 0.01 | 0.00 | 98 | 1013.2 |
| 20260509133614 | 75 | 220 | 0.0 | 2.0 | 0.00 | 0.01 | 0.00 | 98 | 1013.2 |
| 20260509133512 | 75 | 220 | 0.0 | 2.0 | 0.00 | 0.01 | 0.00 | 98 | 1013.2 |
| 20260509133415 | 75 | 220 | 0.0 | 2.0 | 0.00 | 0.01 | 0.00 | 98 | 1013.2 |
| 20260509133312 | 75 | 220 | 0.0 | 2.0 | 0.00 | 0.01 | 0.00 | 98 | 1013.3 |
| 20260509133214 | 75 | 220 | 0.0 | 2.0 | 0.00 | 0.01 | 0.00 | 98 | 1013.4 |
| 20260509133112 | 75 | 220 | 0.0 | 2.0 | 0.00 | 0.01 | 0.00 | 98 | 1013.5 |
| 20260509133011 | 75 | 220 | 0.0 | 2.0 | 0.00 | 0.01 | 0.00 | 98 | 1013.5 |
| 20260509132914 | 75 | 220 | 0.0 | 2.0 | 0.00 | 0.01 | 0.00 | 98 | 1013.5 |
| 20260509132813 | 75 | 220 | 0.0 | 2.0 | 0.00 | 0.01 | 0.00 | 98 | 1013.5 |
| 20260509132713 | 75 | 220 | 0.0 | 2.0 | 0.00 | 0.01 | 0.00 | 98 | 1013.5 |
| 20260509132612 | 75 | 220 | 0.0 | 2.0 | 0.00 | 0.01 | 0.00 | 98 | 1013.7 |
| 20260509132514 | 75 | 220 | 0.0 | 2.0 | 0.00 | 0.01 | 0.00 | 98 | 1013.6 |
| 20260509132414 | 75 | 220 | 0.0 | 2.0 | 0.00 | 0.01 | 0.00 | 98 | 1013.6 |
| 20260509132311 | 75 | 220 | 0.0 | 2.0 | 0.00 | 0.01 | 0.00 | 98 | 1013.7 |
| 20260509132211 | 75 | 220 | 0.0 | 2.0 | 0.00 | 0.01 | 0.00 | 98 | 1013.6 |
| 20260509132110 | 75 | 220 | 1.0 | 2.0 | 0.00 | 0.01 | 0.00 | 98 | 1013.5 |
| 20260509132006 | 75 | 220 | 1.0 | 2.0 | 0.00 | 0.01 | 0.00 | 98 | 1013.6 |
| 20260509131904 | 75 | 220 | 1.0 | 2.0 | 0.00 | 0.01 | 0.00 | 98 | 1013.6 |
| 20260509131803 | 75 | 220 | 0.0 | 2.0 | 0.00 | 0.01 | 0.00 | 98 | 1013.6 |
| 20260509131703 | 75 | 220 | 1.0 | 2.0 | 0.00 | 0.01 | 0.00 | 98 | 1013.6 |
| 20260509131603 | 75 | 220 | 1.0 | 2.0 | 0.00 | 0.01 | 0.00 | 98 | 1013.6 |
| 20260509131504 | 75 | 220 | 1.0 | 2.0 | 0.00 | 0.01 | 0.00 | 98 | 1013.6 |
| 20260509131404 | 75 | 220 | 1.0 | 2.0 | 0.00 | 0.01 | 0.00 | 98 | 1013.7 |
| 20260509131302 | 75 | 220 | 1.0 | 2.0 | 0.00 | 0.01 | 0.00 | 98 | 1013.7 |
| 20260509131204 | 75 | 220 | 0.0 | 2.0 | 0.00 | 0.01 | 0.00 | 98 | 1013.7 |
| 20260509131102 | 75 | 204 | 0.0 | 2.0 | 0.00 | 0.01 | 0.00 | 98 | 1013.8 |
| 20260509131005 | 74 | 203 | 1.0 | 2.0 | 0.00 | 0.01 | 0.00 | 98 | 1013.8 |
| 20260509130902 | 74 | 203 | 1.0 | 2.0 | 0.00 | 0.01 | 0.00 | 98 | 1013.8 |
| 20260509130803 | 74 | 203 | 1.0 | 2.0 | 0.00 | 0.01 | 0.00 | 98 | 1013.9 |
| 20260509130702 | 74 | 203 | 1.0 | 2.0 | 0.00 | 0.01 | 0.00 | 98 | 1013.8 |
| 20260509130604 | 74 | 203 | 0.0 | 2.0 | 0.00 | 0.01 | 0.00 | 98 | 1013.8 |
| 20260509130504 | 74 | 289 | 0.0 | 2.0 | 0.00 | 0.01 | 0.00 | 98 | 1013.8 |
| 20260509130403 | 74 | 289 | 0.0 | 2.0 | 0.00 | 0.01 | 0.00 | 98 | 1013.9 |
| 20260509130301 | 74 | 296 | 0.0 | 2.0 | 0.00 | 0.01 | 0.00 | 98 | 1013.9 |
| 20260509130202 | 74 | 226 | 1.0 | 2.0 | 0.00 | 0.01 | 0.00 | 98 | 1013.9 |
| 20260509130002 | 74 | 158 | 0.0 | 2.0 | 0.00 | 0.01 | 0.00 | 98 | 1013.9 |
| 20260509125902 | 74 | 158 | 0.0 | 2.0 | 0.00 | 0.01 | 0.00 | 98 | 1013.9 |
| 20260509125803 | 74 | 158 | 1.0 | 2.0 | 0.00 | 0.01 | 0.00 | 98 | 1013.8 |
| 20260509125704 | 74 | 158 | 1.0 | 2.0 | 0.00 | 0.01 | 0.00 | 98 | 1013.8 |
| 20260509125603 | 74 | 161 | 0.0 | 1.0 | 0.00 | 0.01 | 0.00 | 98 | 1013.9 |
| 20260509125505 | 74 | 161 | 0.0 | 1.0 | 0.00 | 0.01 | 0.00 | 98 | 1013.8 |
| 20260509125403 | 74 | 161 | 0.0 | 1.0 | 0.00 | 0.01 | 0.00 | 98 | 1013.9 |
| 20260509125307 | 74 | 161 | 0.0 | 1.0 | 0.00 | 0.01 | 0.00 | 98 | 1013.8 |
| 20260509125204 | 74 | 161 | 0.0 | 1.0 | 0.00 | 0.01 | 0.00 | 98 | 1013.9 |
| 20260509125103 | 74 | 161 | 0.0 | 1.0 | 0.00 | 0.01 | 0.00 | 98 | 1013.8 |
| 20260509125003 | 74 | 161 | 0.0 | 0.0 | 0.00 | 0.01 | 0.00 | 98 | 1013.7 |
| 20260509124903 | 74 | 0 | 0.0 | 0.0 | 0.00 | 0.01 | 0.00 | 98 | 1013.8 |
| 20260509124803 | 74 | 193 | 0.0 | 0.0 | 0.00 | 0.01 | 0.00 | 98 | 1013.7 |
| 20260509124702 | 74 | 193 | 0.0 | 0.0 | 0.00 | 0.01 | 0.00 | 98 | 1013.7 |
| 20260509124604 | 74 | 192 | 0.0 | 0.0 | 0.00 | 0.01 | 0.00 | 98 | 1013.7 |
| 20260509124503 | 74 | 190 | 0.0 | 0.0 | 0.00 | 0.01 | 0.00 | 98 | 1013.6 |
| 20260509124404 | 74 | 190 | 0.0 | 0.0 | 0.00 | 0.01 | 0.00 | 98 | 1013.5 |
| 20260509124302 | 74 | 196 | 0.0 | 0.0 | 0.00 | 0.01 | 0.00 | 98 | 1013.5 |
| 20260509124202 | 74 | 196 | 0.0 | 0.0 | 0.00 | 0.01 | 0.00 | 98 | 1013.5 |
| 20260509124103 | 74 | 196 | 0.0 | 0.0 | 0.00 | 0.01 | 0.00 | 98 | 1013.4 |
| 20260509124003 | 74 | 196 | 0.0 | 0.0 | 0.00 | 0.01 | 0.00 | 98 | 1013.5 |
| 20260509123903 | 73 | 197 | 0.0 | 0.0 | 0.00 | 0.01 | 0.00 | 98 | 1013.5 |
| 20260509123802 | 74 | 185 | 0.0 | 0.0 | 0.00 | 0.01 | 0.00 | 98 | 1013.4 |
| 20260509123703 | 74 | 185 | 0.0 | 0.0 | 0.00 | 0.01 | 0.00 | 98 | 1013.4 |
| 20260509123603 | 74 | 185 | 0.0 | 0.0 | 0.00 | 0.01 | 0.00 | 98 | 1013.4 |
| 20260509123503 | 73 | 185 | 0.0 | 0.0 | 0.00 | 0.01 | 0.00 | 98 | 1013.3 |
| 20260509123403 | 73 | 185 | 0.0 | 0.0 | 0.00 | 0.01 | 0.00 | 98 | 1013.2 |
| 20260509123302 | 73 | 185 | 0.0 | 0.0 | 0.00 | 0.01 | 0.00 | 98 | 1013.2 |
| 20260509123203 | 73 | 185 | 0.0 | 0.0 | 0.00 | 0.01 | 0.00 | 98 | 1013.2 |
| 20260509123103 | 73 | 185 | 0.0 | 0.0 | 0.00 | 0.01 | 0.00 | 98 | 1013.2 |
| 20260509123005 | 73 | 185 | 0.0 | 0.0 | 0.00 | 0.01 | 0.00 | 98 | 1013.2 |
| 20260509122902 | 73 | 185 | 0.0 | 0.0 | 0.00 | 0.01 | 0.00 | 98 | 1013.2 |
| 20260509122803 | 73 | 185 | 0.0 | 0.0 | 0.00 | 0.01 | 0.00 | 98 | 1013.3 |
| 20260509122704 | 73 | 185 | 0.0 | 0.0 | 0.00 | 0.01 | 0.00 | 98 | 1013.3 |
| 20260509122603 | 73 | 185 | 0.0 | 0.0 | 0.00 | 0.01 | 0.00 | 98 | 1013.2 |
| 20260509122502 | 73 | 185 | 0.0 | 0.0 | 0.00 | 0.01 | 0.00 | 98 | 1013.3 |
| 20260509122403 | 73 | 185 | 0.0 | 0.0 | 0.00 | 0.01 | 0.00 | 98 | 1013.2 |
| 20260509122305 | 73 | 185 | 0.0 | 0.0 | 0.00 | 0.01 | 0.00 | 98 | 1013.2 |
| 20260509122203 | 73 | 185 | 0.0 | 0.0 | 0.00 | 0.01 | 0.00 | 98 | 1013.1 |
| 20260509122103 | 73 | 185 | 0.0 | 0.0 | 0.00 | 0.01 | 0.00 | 98 | 1013.1 |
| 20260509122005 | 73 | 185 | 0.0 | 0.0 | 0.00 | 0.01 | 0.00 | 98 | 1013.1 |
| 20260509121902 | 73 | 185 | 0.0 | 0.0 | 0.00 | 0.01 | 0.00 | 98 | 1013.0 |
| 20260509121802 | 73 | 185 | 0.0 | 0.0 | 0.00 | 0.01 | 0.00 | 98 | 1013.1 |
| 20260509121703 | 73 | 185 | 0.0 | 0.0 | 0.00 | 0.01 | 0.00 | 98 | 1013.1 |
| 20260509121604 | 73 | 185 | 0.0 | 0.0 | 0.00 | 0.01 | 0.00 | 98 | 1013.0 |
| 20260509121504 | 73 | 185 | 0.0 | 0.0 | 0.00 | 0.01 | 0.00 | 98 | 1013.0 |
| 20260509121401 | 73 | 185 | 0.0 | 0.0 | 0.00 | 0.01 | 0.00 | 98 | 1013.0 |
| 20260509121302 | 73 | 185 | 0.0 | 0.0 | 0.00 | 0.01 | 0.00 | 98 | 1012.9 |
| 20260509121202 | 73 | 185 | 0.0 | 0.0 | 0.00 | 0.01 | 0.00 | 98 | 1012.9 |
| 20260509121103 | 73 | 185 | 0.0 | 0.0 | 0.00 | 0.01 | 0.00 | 98 | 1013.0 |
| 20260509121004 | 73 | 185 | 0.0 | 0.0 | 0.00 | 0.01 | 0.00 | 98 | 1013.0 |
| 20260509120902 | 73 | 185 | 0.0 | 0.0 | 0.00 | 0.01 | 0.00 | 98 | 1013.0 |
| 20260509120803 | 73 | 185 | 0.0 | 0.0 | 0.00 | 0.01 | 0.00 | 98 | 1012.9 |
| 20260509120701 | 73 | 104 | 0.0 | 0.0 | 0.00 | 0.01 | 0.00 | 98 | 1012.9 |
| 20260509120533 | 73 | 104 | 0.0 | 0.0 | 0.00 | 0.01 | 0.00 | 98 | 1013.0 |
| 20260509120431 | 73 | 104 | 0.0 | 0.0 | 0.00 | 0.01 | 0.00 | 98 | 1012.9 |
| 20260509120331 | 73 | 94 | 0.0 | 0.0 | 0.00 | 0.01 | 0.00 | 98 | 1012.9 |
| 20260509120232 | 73 | 94 | 0.0 | 0.0 | 0.00 | 0.01 | 0.00 | 98 | 1013.0 |
| 20260509120124 | 73 | 94 | 0.0 | 0.0 | 0.00 | 0.01 | 0.00 | 98 | 1012.9 |
| 20260509120025 | 73 | 94 | 0.0 | 0.0 | 0.00 | 0.01 | 0.00 | 98 | 1013.0 |
| 20260509115922 | 73 | 94 | 0.0 | 0.0 | 0.00 | 0.01 | 0.00 | 98 | 1013.0 |
| 20260509115821 | 73 | 94 | 0.0 | 0.0 | 0.00 | 0.01 | 0.00 | 98 | 1013.0 |
| 20260509115712 | 73 | 94 | 0.0 | 0.0 | 0.00 | 0.01 | 0.00 | 98 | 1013.0 |
| 20260509115611 | 73 | 94 | 0.0 | 0.0 | 0.00 | 0.01 | 0.00 | 98 | 1013.0 |
| 20260509115512 | 74 | 94 | 0.0 | 0.0 | 0.00 | 0.01 | 0.00 | 98 | 1013.0 |
| 20260509115410 | 73 | 94 | 0.0 | 0.0 | 0.00 | 0.01 | 0.00 | 98 | 1013.0 |
| 20260509115310 | 73 | 94 | 0.0 | 0.0 | 0.00 | 0.01 | 0.00 | 98 | 1012.9 |
| 20260509115211 | 74 | 94 | 0.0 | 0.0 | 0.00 | 0.01 | 0.00 | 98 | 1013.0 |
| 20260509115110 | 74 | 94 | 0.0 | 0.0 | 0.00 | 0.01 | 0.00 | 98 | 1013.0 |
| 20260509115011 | 73 | 94 | 0.0 | 0.0 | 0.00 | 0.01 | 0.00 | 98 | 1013.1 |
| 20260509114910 | 73 | 94 | 0.0 | 0.0 | 0.00 | 0.01 | 0.00 | 98 | 1013.1 |
| 20260509114811 | 74 | 94 | 0.0 | 0.0 | 0.00 | 0.01 | 0.00 | 98 | 1013.1 |
| 20260509114710 | 74 | 94 | 0.0 | 0.0 | 0.00 | 0.01 | 0.00 | 98 | 1013.1 |
| 20260509114611 | 74 | 94 | 0.0 | 0.0 | 0.00 | 0.01 | 0.00 | 98 | 1013.1 |
| 20260509114511 | 74 | 94 | 0.0 | 0.0 | 0.00 | 0.01 | 0.00 | 98 | 1013.1 |
| 20260509114411 | 74 | 94 | 0.0 | 0.0 | 0.00 | 0.01 | 0.00 | 98 | 1013.1 |
| 20260509114312 | 74 | 94 | 0.0 | 0.0 | 0.00 | 0.01 | 0.00 | 98 | 1013.2 |
| 20260509114211 | 74 | 94 | 0.0 | 0.0 | 0.00 | 0.01 | 0.00 | 98 | 1013.1 |
| 20260509114110 | 74 | 94 | 0.0 | 0.0 | 0.00 | 0.01 | 0.00 | 98 | 1013.1 |
| 20260509114010 | 74 | 94 | 0.0 | 0.0 | 0.00 | 0.01 | 0.00 | 98 | 1013.1 |
| 20260509113910 | 74 | 94 | 0.0 | 0.0 | 0.00 | 0.01 | 0.00 | 98 | 1013.1 |
| 20260509113811 | 74 | 94 | 0.0 | 0.0 | 0.00 | 0.01 | 0.00 | 98 | 1013.1 |
| 20260509113711 | 74 | 94 | 0.0 | 0.0 | 0.00 | 0.01 | 0.00 | 98 | 1013.1 |
| 20260509113610 | 74 | 94 | 0.0 | 0.0 | 0.00 | 0.01 | 0.00 | 98 | 1013.1 |
| 20260509113511 | 74 | 94 | 0.0 | 0.0 | 0.00 | 0.01 | 0.00 | 98 | 1013.0 |
| 20260509113411 | 74 | 94 | 0.0 | 0.0 | 0.00 | 0.01 | 0.00 | 98 | 1013.0 |
| 20260509113310 | 74 | 94 | 0.0 | 0.0 | 0.00 | 0.01 | 0.00 | 98 | 1013.0 |
| 20260509113210 | 74 | 94 | 0.0 | 0.0 | 0.00 | 0.01 | 0.00 | 98 | 1013.0 |
| 20260509113111 | 74 | 94 | 0.0 | 0.0 | 0.00 | 0.01 | 0.00 | 98 | 1013.1 |
| 20260509113011 | 74 | 94 | 0.0 | 0.0 | 0.00 | 0.01 | 0.00 | 98 | 1013.1 |
| 20260509112910 | 74 | 94 | 0.0 | 0.0 | 0.00 | 0.01 | 0.00 | 98 | 1013.1 |
| 20260509112811 | 74 | 94 | 0.0 | 0.0 | 0.00 | 0.01 | 0.00 | 98 | 1013.1 |
| 20260509112712 | 74 | 94 | 0.0 | 0.0 | 0.00 | 0.01 | 0.00 | 98 | 1013.3 |
| 20260509112610 | 74 | 94 | 0.0 | 0.0 | 0.00 | 0.01 | 0.00 | 98 | 1013.3 |
| 20260509112510 | 74 | 94 | 0.0 | 0.0 | 0.00 | 0.01 | 0.00 | 98 | 1013.3 |
| 20260509112411 | 74 | 94 | 0.0 | 0.0 | 0.00 | 0.01 | 0.00 | 98 | 1013.4 |
| 20260509112311 | 74 | 94 | 0.0 | 0.0 | 0.00 | 0.01 | 0.00 | 98 | 1013.6 |
| 20260509112212 | 74 | 94 | 0.0 | 0.0 | 0.00 | 0.01 | 0.00 | 98 | 1013.5 |
| 20260509112110 | 74 | 94 | 0.0 | 0.0 | 0.00 | 0.01 | 0.00 | 98 | 1013.5 |
| 20260509112011 | 74 | 94 | 0.0 | 0.0 | 0.00 | 0.01 | 0.00 | 98 | 1013.6 |
| 20260509111909 | 74 | 94 | 0.0 | 0.0 | 0.00 | 0.01 | 0.00 | 98 | 1013.6 |
| 20260509111811 | 74 | 94 | 0.0 | 0.0 | 0.00 | 0.01 | 0.00 | 98 | 1013.6 |
| 20260509111706 | 74 | 94 | 0.0 | 0.0 | 0.00 | 0.01 | 0.00 | 98 | 1013.6 |
| 20260509111604 | 73 | 94 | 0.0 | 0.0 | 0.00 | 0.01 | 0.00 | 98 | 1013.6 |
| 20260509111503 | 73 | 94 | 0.0 | 0.0 | 0.00 | 0.01 | 0.00 | 98 | 1013.6 |
| 20260509111356 | 73 | 94 | 0.0 | 0.0 | 0.00 | 0.01 | 0.00 | 98 | 1013.7 |
| 20260509111254 | 73 | 94 | 0.0 | 0.0 | 0.00 | 0.01 | 0.00 | 98 | 1013.6 |
| 20260509111153 | 73 | 94 | 0.0 | 0.0 | 0.00 | 0.01 | 0.00 | 98 | 1013.7 |
| 20260509111049 | 73 | 94 | 0.0 | 0.0 | 0.00 | 0.01 | 0.00 | 98 | 1013.6 |
| 20260509110946 | 73 | 94 | 0.0 | 0.0 | 0.00 | 0.01 | 0.00 | 98 | 1013.6 |
| 20260509110846 | 73 | 94 | 0.0 | 0.0 | 0.00 | 0.01 | 0.00 | 98 | 1013.6 |
| 20260509110742 | 73 | 94 | 0.0 | 0.0 | 0.00 | 0.01 | 0.00 | 98 | 1013.5 |
| 20260509110640 | 73 | 94 | 0.0 | 0.0 | 0.00 | 0.01 | 0.00 | 98 | 1013.4 |
| 20260509110539 | 73 | 94 | 0.0 | 0.0 | 0.00 | 0.01 | 0.00 | 98 | 1013.5 |
| 20260509110437 | 73 | 94 | 0.0 | 0.0 | 0.00 | 0.01 | 0.00 | 98 | 1013.4 |
| 20260509110333 | 73 | 94 | 0.0 | 0.0 | 0.00 | 0.01 | 0.00 | 98 | 1013.4 |
| 20260509110231 | 73 | 94 | 0.0 | 0.0 | 0.00 | 0.01 | 0.00 | 98 | 1013.3 |
| 20260509110132 | 73 | 94 | 0.0 | 0.0 | 0.00 | 0.01 | 0.00 | 98 | 1013.2 |
| 20260509110012 | 73 | 94 | 0.0 | 0.0 | 0.00 | 0.01 | 0.00 | 98 | 1013.2 |
| 20260509105911 | 73 | 94 | 0.0 | 0.0 | 0.00 | 0.01 | 0.00 | 98 | 1013.1 |
| 20260509105809 | 73 | 94 | 0.0 | 0.0 | 0.00 | 0.01 | 0.00 | 98 | 1013.2 |
| 20260509105709 | 73 | 94 | 0.0 | 0.0 | 0.00 | 0.01 | 0.00 | 98 | 1013.1 |
| 20260509105612 | 73 | 94 | 0.0 | 0.0 | 0.00 | 0.01 | 0.00 | 98 | 1013.1 |
| 20260509105509 | 73 | 94 | 0.0 | 0.0 | 0.00 | 0.01 | 0.00 | 98 | 1013.1 |
| 20260509105410 | 73 | 94 | 0.0 | 0.0 | 0.00 | 0.01 | 0.00 | 98 | 1013.0 |
| 20260509105310 | 73 | 94 | 0.0 | 0.0 | 0.00 | 0.01 | 0.00 | 98 | 1013.0 |
| 20260509105210 | 73 | 94 | 0.0 | 0.0 | 0.00 | 0.01 | 0.00 | 98 | 1013.0 |
| 20260509105109 | 73 | 94 | 0.0 | 0.0 | 0.00 | 0.01 | 0.00 | 98 | 1012.9 |
| 20260509105009 | 73 | 94 | 0.0 | 0.0 | 0.00 | 0.01 | 0.00 | 98 | 1012.9 |
| 20260509104910 | 73 | 94 | 0.0 | 0.0 | 0.00 | 0.01 | 0.00 | 98 | 1012.9 |
| 20260509104809 | 73 | 94 | 0.0 | 0.0 | 0.00 | 0.01 | 0.00 | 98 | 1012.8 |
| 20260509104710 | 73 | 94 | 0.0 | 0.0 | 0.00 | 0.01 | 0.00 | 98 | 1012.9 |
| 20260509104611 | 73 | 94 | 0.0 | 0.0 | 0.00 | 0.01 | 0.00 | 98 | 1012.8 |
| 20260509104510 | 73 | 94 | 0.0 | 0.0 | 0.00 | 0.01 | 0.00 | 98 | 1012.8 |
| 20260509104410 | 73 | 94 | 0.0 | 0.0 | 0.00 | 0.01 | 0.00 | 98 | 1012.8 |
| 20260509104309 | 73 | 94 | 0.0 | 0.0 | 0.00 | 0.01 | 0.00 | 98 | 1012.8 |
| 20260509104208 | 73 | 94 | 0.0 | 0.0 | 0.00 | 0.01 | 0.00 | 98 | 1012.8 |
| 20260509104110 | 73 | 94 | 0.0 | 0.0 | 0.00 | 0.01 | 0.00 | 98 | 1012.8 |
| 20260509104009 | 73 | 94 | 0.0 | 0.0 | 0.00 | 0.01 | 0.00 | 98 | 1012.8 |
| 20260509103910 | 73 | 94 | 0.0 | 0.0 | 0.00 | 0.01 | 0.00 | 98 | 1012.8 |
| 20260509103810 | 73 | 94 | 0.0 | 0.0 | 0.00 | 0.01 | 0.00 | 98 | 1012.8 |
| 20260509103710 | 73 | 94 | 0.0 | 0.0 | 0.00 | 0.01 | 0.00 | 98 | 1012.8 |
| 20260509103610 | 73 | 94 | 0.0 | 0.0 | 0.00 | 0.01 | 0.00 | 98 | 1012.9 |
| 20260509103510 | 73 | 94 | 0.0 | 0.0 | 0.00 | 0.01 | 0.00 | 98 | 1012.9 |
| 20260509103409 | 73 | 94 | 0.0 | 0.0 | 0.00 | 0.01 | 0.00 | 98 | 1012.9 |
| 20260509103308 | 73 | 94 | 0.0 | 0.0 | 0.00 | 0.01 | 0.00 | 98 | 1012.8 |
| 20260509103210 | 73 | 94 | 0.0 | 0.0 | 0.00 | 0.01 | 0.00 | 98 | 1012.8 |
| 20260509103108 | 73 | 94 | 0.0 | 0.0 | 0.00 | 0.01 | 0.00 | 98 | 1012.8 |
| 20260509103009 | 73 | 94 | 0.0 | 0.0 | 0.00 | 0.01 | 0.00 | 98 | 1012.7 |
| 20260509102909 | 73 | 94 | 0.0 | 0.0 | 0.00 | 0.01 | 0.00 | 98 | 1012.7 |
| 20260509102809 | 73 | 94 | 0.0 | 0.0 | 0.00 | 0.01 | 0.00 | 98 | 1012.7 |
| 20260509102709 | 73 | 94 | 0.0 | 0.0 | 0.00 | 0.01 | 0.00 | 98 | 1012.8 |
| 20260509102611 | 73 | 94 | 0.0 | 0.0 | 0.00 | 0.01 | 0.00 | 98 | 1012.7 |
| 20260509102509 | 73 | 94 | 0.0 | 0.0 | 0.00 | 0.01 | 0.00 | 98 | 1012.6 |
| 20260509102409 | 73 | 94 | 0.0 | 0.0 | 0.00 | 0.01 | 0.00 | 98 | 1012.7 |
| 20260509102309 | 73 | 94 | 0.0 | 0.0 | 0.00 | 0.01 | 0.00 | 98 | 1012.6 |
| 20260509102210 | 73 | 94 | 0.0 | 0.0 | 0.00 | 0.01 | 0.00 | 98 | 1012.6 |
| 20260509102110 | 73 | 94 | 0.0 | 0.0 | 0.00 | 0.01 | 0.00 | 98 | 1012.6 |
| 20260509102009 | 73 | 94 | 0.0 | 0.0 | 0.00 | 0.01 | 0.00 | 98 | 1012.5 |
| 20260509101909 | 73 | 94 | 0.0 | 0.0 | 0.00 | 0.01 | 0.00 | 98 | 1012.6 |
| 20260509101811 | 73 | 94 | 0.0 | 0.0 | 0.00 | 0.01 | 0.00 | 98 | 1012.6 |
| 20260509101708 | 73 | 94 | 0.0 | 0.0 | 0.00 | 0.01 | 0.00 | 98 | 1012.5 |
| 20260509101611 | 73 | 94 | 0.0 | 0.0 | 0.00 | 0.01 | 0.00 | 98 | 1012.6 |
| 20260509101509 | 73 | 94 | 0.0 | 0.0 | 0.00 | 0.01 | 0.00 | 98 | 1012.6 |
| 20260509101411 | 73 | 94 | 0.0 | 0.0 | 0.00 | 0.01 | 0.00 | 98 | 1012.6 |
| 20260509101309 | 73 | 94 | 0.0 | 0.0 | 0.00 | 0.01 | 0.00 | 98 | 1012.6 |
| 20260509101208 | 73 | 94 | 0.0 | 0.0 | 0.00 | 0.01 | 0.00 | 98 | 1012.7 |
| 20260509101111 | 73 | 94 | 0.0 | 0.0 | 0.00 | 0.01 | 0.00 | 98 | 1012.7 |
| 20260509101008 | 73 | 94 | 0.0 | 0.0 | 0.00 | 0.01 | 0.00 | 98 | 1012.6 |
| 20260509100909 | 73 | 94 | 0.0 | 0.0 | 0.00 | 0.01 | 0.00 | 98 | 1012.7 |
| 20260509100809 | 73 | 94 | 0.0 | 0.0 | 0.00 | 0.01 | 0.00 | 98 | 1012.6 |
| 20260509100709 | 73 | 94 | 0.0 | 0.0 | 0.00 | 0.01 | 0.00 | 98 | 1012.6 |
| 20260509100610 | 73 | 94 | 0.0 | 0.0 | 0.00 | 0.01 | 0.00 | 98 | 1012.5 |
| 20260509100509 | 73 | 94 | 0.0 | 0.0 | 0.00 | 0.01 | 0.00 | 98 | 1012.5 |
| 20260509100409 | 73 | 94 | 0.0 | 0.0 | 0.00 | 0.01 | 0.00 | 98 | 1012.5 |
| 20260509100308 | 73 | 94 | 0.0 | 0.0 | 0.00 | 0.01 | 0.00 | 98 | 1012.5 |
| 20260509100208 | 73 | 94 | 0.0 | 0.0 | 0.00 | 0.01 | 0.00 | 98 | 1012.5 |
| 20260509100109 | 73 | 94 | 0.0 | 0.0 | 0.00 | 0.01 | 0.00 | 98 | 1012.5 |
| 20260509100009 | 73 | 94 | 0.0 | 0.0 | 0.00 | 0.01 | 0.00 | 98 | 1012.4 |
| 20260509095908 | 73 | 94 | 0.0 | 0.0 | 0.00 | 0.01 | 0.00 | 98 | 1012.4 |
| 20260509095808 | 73 | 94 | 0.0 | 0.0 | 0.00 | 0.01 | 0.00 | 98 | 1012.3 |
| 20260509095710 | 73 | 94 | 0.0 | 0.0 | 0.00 | 0.01 | 0.00 | 98 | 1012.3 |
| 20260509095609 | 73 | 94 | 0.0 | 0.0 | 0.00 | 0.01 | 0.00 | 98 | 1012.3 |
| 20260509095508 | 73 | 94 | 0.0 | 0.0 | 0.00 | 0.01 | 0.00 | 98 | 1012.3 |
| 20260509095409 | 73 | 94 | 0.0 | 0.0 | 0.00 | 0.01 | 0.00 | 98 | 1012.4 |
| 20260509095309 | 73 | 94 | 0.0 | 0.0 | 0.00 | 0.01 | 0.00 | 98 | 1012.3 |
| 20260509095208 | 73 | 94 | 0.0 | 0.0 | 0.00 | 0.01 | 0.00 | 98 | 1012.4 |
| 20260509095108 | 73 | 94 | 0.0 | 0.0 | 0.00 | 0.01 | 0.00 | 98 | 1012.3 |
| 20260509095007 | 73 | 94 | 0.0 | 0.0 | 0.00 | 0.01 | 0.00 | 98 | 1012.4 |
| 20260509094909 | 73 | 94 | 0.0 | 0.0 | 0.00 | 0.01 | 0.00 | 98 | 1012.4 |
| 20260509094808 | 73 | 94 | 0.0 | 0.0 | 0.00 | 0.01 | 0.00 | 98 | 1012.3 |
| 20260509094708 | 73 | 94 | 0.0 | 0.0 | 0.00 | 0.01 | 0.00 | 98 | 1012.3 |
| 20260509094609 | 73 | 94 | 0.0 | 0.0 | 0.00 | 0.01 | 0.00 | 98 | 1012.4 |
| 20260509094509 | 73 | 94 | 0.0 | 0.0 | 0.00 | 0.01 | 0.00 | 98 | 1012.4 |
| 20260509094409 | 73 | 94 | 0.0 | 0.0 | 0.00 | 0.01 | 0.00 | 98 | 1012.5 |
| 20260509094309 | 73 | 94 | 0.0 | 0.0 | 0.00 | 0.01 | 0.00 | 98 | 1012.4 |
| 20260509094209 | 73 | 94 | 0.0 | 0.0 | 0.00 | 0.01 | 0.00 | 98 | 1012.4 |
| 20260509094109 | 73 | 94 | 0.0 | 0.0 | 0.00 | 0.01 | 0.00 | 98 | 1012.4 |
| 20260509094010 | 73 | 94 | 0.0 | 0.0 | 0.00 | 0.01 | 0.00 | 98 | 1012.3 |
| 20260509093908 | 73 | 94 | 0.0 | 0.0 | 0.00 | 0.01 | 0.00 | 98 | 1012.4 |
| 20260509093809 | 73 | 94 | 0.0 | 0.0 | 0.00 | 0.01 | 0.00 | 98 | 1012.4 |
| 20260509093708 | 73 | 94 | 0.0 | 0.0 | 0.00 | 0.01 | 0.00 | 98 | 1012.4 |
| 20260509093610 | 73 | 94 | 0.0 | 0.0 | 0.00 | 0.01 | 0.00 | 98 | 1012.4 |
| 20260509093510 | 73 | 94 | 0.0 | 0.0 | 0.00 | 0.01 | 0.00 | 98 | 1012.4 |
| 20260509093409 | 73 | 94 | 0.0 | 0.0 | 0.00 | 0.01 | 0.00 | 98 | 1012.4 |
| 20260509093310 | 73 | 94 | 0.0 | 0.0 | 0.00 | 0.01 | 0.00 | 98 | 1012.6 |
| 20260509093210 | 73 | 94 | 0.0 | 0.0 | 0.00 | 0.01 | 0.00 | 98 | 1012.6 |
| 20260509093108 | 73 | 94 | 0.0 | 0.0 | 0.00 | 0.01 | 0.00 | 98 | 1012.7 |
| 20260509093009 | 73 | 94 | 0.0 | 0.0 | 0.00 | 0.01 | 0.00 | 98 | 1012.7 |
| 20260509092908 | 73 | 94 | 0.0 | 0.0 | 0.00 | 0.01 | 0.00 | 98 | 1012.6 |
| 20260509092808 | 73 | 94 | 0.0 | 0.0 | 0.00 | 0.01 | 0.00 | 98 | 1012.6 |
| 20260509092707 | 73 | 94 | 0.0 | 1.0 | 0.00 | 0.01 | 0.00 | 98 | 1012.6 |
| 20260509092609 | 73 | 94 | 0.0 | 2.0 | 0.00 | 0.01 | 0.00 | 98 | 1012.6 |
| 20260509092507 | 73 | 94 | 0.0 | 2.0 | 0.00 | 0.01 | 0.00 | 98 | 1012.7 |
| 20260509092407 | 73 | 94 | 0.0 | 2.0 | 0.00 | 0.01 | 0.00 | 98 | 1012.7 |
| 20260509092308 | 73 | 94 | 0.0 | 2.0 | 0.00 | 0.01 | 0.00 | 98 | 1012.8 |
| 20260509092208 | 73 | 94 | 0.0 | 2.0 | 0.00 | 0.01 | 0.00 | 98 | 1012.8 |
| 20260509092107 | 73 | 94 | 0.0 | 2.0 | 0.00 | 0.01 | 0.00 | 98 | 1012.8 |
| 20260509092007 | 73 | 94 | 0.0 | 2.0 | 0.00 | 0.01 | 0.00 | 98 | 1012.8 |
| 20260509091908 | 73 | 94 | 1.0 | 2.0 | 0.00 | 0.01 | 0.00 | 98 | 1012.7 |
| 20260509091808 | 73 | 94 | 1.0 | 2.0 | 0.00 | 0.01 | 0.00 | 98 | 1012.8 |
| 20260509091708 | 73 | 94 | 1.0 | 2.0 | 0.00 | 0.01 | 0.00 | 98 | 1012.9 |
| 20260509091607 | 73 | 94 | 1.0 | 2.0 | 0.00 | 0.01 | 0.00 | 98 | 1012.8 |
| 20260509091506 | 73 | 94 | 1.0 | 2.0 | 0.00 | 0.01 | 0.00 | 98 | 1012.9 |
| 20260509091409 | 73 | 94 | 1.0 | 2.0 | 0.00 | 0.01 | 0.00 | 98 | 1012.8 |
| 20260509091308 | 73 | 94 | 1.0 | 2.0 | 0.00 | 0.01 | 0.00 | 98 | 1012.8 |
| 20260509091208 | 73 | 94 | 1.0 | 2.0 | 0.00 | 0.01 | 0.00 | 98 | 1012.8 |
| 20260509091108 | 73 | 94 | 1.0 | 2.0 | 0.00 | 0.01 | 0.00 | 98 | 1012.8 |
| 20260509091009 | 73 | 94 | 1.0 | 1.0 | 0.00 | 0.01 | 0.00 | 98 | 1012.7 |
| 20260509090908 | 73 | 94 | 0.0 | 1.0 | 0.00 | 0.01 | 0.00 | 98 | 1012.7 |
| 20260509090808 | 73 | 94 | 0.0 | 1.0 | 0.00 | 0.01 | 0.00 | 97 | 1012.7 |
| 20260509090707 | 73 | 94 | 0.0 | 1.0 | 0.00 | 0.01 | 0.00 | 98 | 1012.7 |
| 20260509090608 | 73 | 94 | 0.0 | 1.0 | 0.00 | 0.01 | 0.00 | 98 | 1012.7 |
| 20260509090508 | 73 | 94 | 0.0 | 1.0 | 0.00 | 0.01 | 0.00 | 98 | 1012.7 |
| 20260509090407 | 73 | 94 | 1.0 | 1.0 | 0.00 | 0.01 | 0.00 | 97 | 1012.8 |
| 20260509090308 | 73 | 94 | 0.0 | 1.0 | 0.00 | 0.01 | 0.00 | 98 | 1012.7 |
| 20260509090208 | 73 | 94 | 0.0 | 1.0 | 0.00 | 0.01 | 0.00 | 98 | 1012.7 |
| 20260509090109 | 73 | 94 | 0.0 | 1.0 | 0.00 | 0.01 | 0.00 | 97 | 1012.6 |
| 20260509090007 | 73 | 94 | 0.0 | 0.0 | 0.00 | 0.01 | 0.00 | 98 | 1012.6 |
| 20260509085906 | 73 | 94 | 0.0 | 0.0 | 0.00 | 0.01 | 0.00 | 98 | 1012.7 |
| 20260509085808 | 73 | 94 | 0.0 | 0.0 | 0.00 | 0.01 | 0.00 | 98 | 1012.7 |
| 20260509085707 | 73 | 94 | 0.0 | 0.0 | 0.00 | 0.01 | 0.00 | 98 | 1012.7 |
| 20260509085606 | 73 | 94 | 0.0 | 0.0 | 0.00 | 0.01 | 0.00 | 98 | 1012.6 |
| 20260509085507 | 73 | 94 | 0.0 | 0.0 | 0.00 | 0.01 | 0.00 | 97 | 1012.6 |
| 20260509085407 | 73 | 94 | 0.0 | 0.0 | 0.00 | 0.01 | 0.00 | 97 | 1012.6 |
| 20260509085309 | 73 | 94 | 0.0 | 0.0 | 0.00 | 0.01 | 0.00 | 97 | 1012.5 |
| 20260509085206 | 73 | 94 | 0.0 | 0.0 | 0.00 | 0.01 | 0.00 | 97 | 1012.6 |
| 20260509085107 | 73 | 94 | 0.0 | 0.0 | 0.00 | 0.01 | 0.00 | 97 | 1012.6 |
| 20260509085006 | 73 | 94 | 0.0 | 0.0 | 0.00 | 0.01 | 0.00 | 97 | 1012.5 |
| 20260509084906 | 73 | 94 | 0.0 | 0.0 | 0.00 | 0.01 | 0.00 | 97 | 1012.5 |
| 20260509084807 | 73 | 94 | 0.0 | 0.0 | 0.00 | 0.01 | 0.00 | 97 | 1012.5 |
| 20260509084706 | 73 | 94 | 0.0 | 0.0 | 0.00 | 0.01 | 0.00 | 97 | 1012.5 |
| 20260509084606 | 73 | 94 | 0.0 | 0.0 | 0.00 | 0.01 | 0.00 | 97 | 1012.6 |
| 20260509084506 | 73 | 94 | 0.0 | 0.0 | 0.00 | 0.01 | 0.00 | 97 | 1012.5 |
| 20260509084406 | 73 | 94 | 0.0 | 0.0 | 0.00 | 0.01 | 0.00 | 97 | 1012.5 |
| 20260509084306 | 73 | 94 | 0.0 | 0.0 | 0.00 | 0.01 | 0.00 | 97 | 1012.7 |
| 20260509084206 | 73 | 94 | 0.0 | 0.0 | 0.00 | 0.01 | 0.00 | 97 | 1012.6 |
| 20260509084108 | 73 | 94 | 0.0 | 0.0 | 0.00 | 0.01 | 0.00 | 97 | 1012.6 |
| 20260509084006 | 73 | 94 | 0.0 | 0.0 | 0.00 | 0.01 | 0.00 | 97 | 1012.6 |
| 20260509083906 | 73 | 94 | 0.0 | 0.0 | 0.00 | 0.01 | 0.00 | 97 | 1012.6 |
| 20260509083806 | 73 | 94 | 0.0 | 0.0 | 0.00 | 0.01 | 0.00 | 97 | 1012.6 |
| 20260509083708 | 73 | 94 | 0.0 | 0.0 | 0.00 | 0.01 | 0.00 | 97 | 1012.6 |
| 20260509083607 | 73 | 94 | 0.0 | 0.0 | 0.00 | 0.01 | 0.00 | 97 | 1012.6 |
| 20260509083506 | 73 | 94 | 0.0 | 0.0 | 0.00 | 0.01 | 0.00 | 97 | 1012.6 |
| 20260509083407 | 73 | 94 | 0.0 | 0.0 | 0.00 | 0.01 | 0.00 | 97 | 1012.7 |
| 20260509083308 | 73 | 94 | 0.0 | 0.0 | 0.00 | 0.01 | 0.00 | 97 | 1012.6 |
| 20260509083206 | 73 | 94 | 0.0 | 0.0 | 0.00 | 0.01 | 0.00 | 97 | 1012.6 |
| 20260509083108 | 73 | 94 | 0.0 | 0.0 | 0.00 | 0.01 | 0.00 | 97 | 1012.6 |
| 20260509083006 | 73 | 94 | 0.0 | 0.0 | 0.00 | 0.01 | 0.00 | 97 | 1012.5 |
| 20260509082906 | 73 | 94 | 0.0 | 0.0 | 0.00 | 0.01 | 0.00 | 97 | 1012.5 |
| 20260509082806 | 73 | 94 | 0.0 | 0.0 | 0.00 | 0.01 | 0.00 | 97 | 1012.4 |
| 20260509082707 | 73 | 94 | 0.0 | 0.0 | 0.00 | 0.01 | 0.00 | 97 | 1012.4 |
| 20260509082606 | 73 | 94 | 0.0 | 0.0 | 0.00 | 0.01 | 0.00 | 97 | 1012.5 |
| 20260509082506 | 73 | 94 | 0.0 | 0.0 | 0.00 | 0.01 | 0.00 | 97 | 1012.4 |
| 20260509082408 | 73 | 94 | 0.0 | 0.0 | 0.00 | 0.01 | 0.00 | 97 | 1012.4 |
| 20260509082307 | 73 | 94 | 0.0 | 0.0 | 0.00 | 0.01 | 0.00 | 97 | 1012.5 |
| 20260509082208 | 73 | 94 | 0.0 | 0.0 | 0.00 | 0.01 | 0.00 | 97 | 1012.5 |
| 20260509082105 | 73 | 94 | 0.0 | 0.0 | 0.00 | 0.01 | 0.00 | 97 | 1012.5 |
| 20260509082008 | 73 | 94 | 0.0 | 0.0 | 0.00 | 0.01 | 0.00 | 97 | 1012.5 |
| 20260509081906 | 73 | 94 | 0.0 | 0.0 | 0.00 | 0.01 | 0.00 | 97 | 1012.5 |
| 20260509081805 | 73 | 94 | 0.0 | 0.0 | 0.00 | 0.01 | 0.00 | 97 | 1012.5 |
| 20260509081706 | 73 | 94 | 0.0 | 0.0 | 0.00 | 0.01 | 0.00 | 97 | 1012.6 |
| 20260509081607 | 73 | 94 | 0.0 | 0.0 | 0.00 | 0.01 | 0.00 | 97 | 1012.6 |
| 20260509081507 | 73 | 94 | 0.0 | 0.0 | 0.00 | 0.01 | 0.00 | 97 | 1012.6 |
| 20260509081406 | 73 | 94 | 0.0 | 0.0 | 0.00 | 0.01 | 0.00 | 97 | 1012.6 |
| 20260509081307 | 73 | 94 | 0.0 | 0.0 | 0.00 | 0.01 | 0.00 | 97 | 1012.6 |
| 20260509081208 | 73 | 94 | 0.0 | 0.0 | 0.00 | 0.01 | 0.00 | 97 | 1012.6 |
| 20260509081105 | 73 | 94 | 0.0 | 0.0 | 0.00 | 0.01 | 0.00 | 97 | 1012.6 |
| 20260509081005 | 73 | 94 | 0.0 | 0.0 | 0.00 | 0.01 | 0.00 | 97 | 1012.6 |
| 20260509080906 | 73 | 94 | 0.0 | 0.0 | 0.00 | 0.01 | 0.00 | 97 | 1012.6 |
| 20260509080805 | 73 | 94 | 0.0 | 0.0 | 0.00 | 0.01 | 0.00 | 97 | 1012.6 |
| 20260509080706 | 73 | 94 | 0.0 | 0.0 | 0.00 | 0.01 | 0.00 | 97 | 1012.5 |
| 20260509080606 | 73 | 94 | 0.0 | 0.0 | 0.00 | 0.01 | 0.00 | 97 | 1012.6 |
| 20260509080505 | 73 | 94 | 0.0 | 0.0 | 0.00 | 0.01 | 0.00 | 97 | 1012.6 |
| 20260509080405 | 73 | 94 | 0.0 | 0.0 | 0.00 | 0.01 | 0.00 | 97 | 1012.6 |
| 20260509080305 | 73 | 94 | 0.0 | 0.0 | 0.00 | 0.01 | 0.00 | 97 | 1012.6 |
| 20260509080205 | 73 | 94 | 0.0 | 0.0 | 0.00 | 0.01 | 0.00 | 97 | 1012.6 |
| 20260509080105 | 73 | 94 | 0.0 | 0.0 | 0.00 | 0.01 | 0.00 | 97 | 1012.6 |
| 20260509080005 | 73 | 94 | 0.0 | 0.0 | 0.00 | 0.01 | 0.00 | 97 | 1012.5 |
| 20260509075906 | 73 | 94 | 0.0 | 0.0 | 0.00 | 0.01 | 0.00 | 97 | 1012.7 |
| 20260509075805 | 73 | 94 | 0.0 | 0.0 | 0.00 | 0.01 | 0.00 | 97 | 1012.7 |
| 20260509075705 | 73 | 94 | 0.0 | 0.0 | 0.00 | 0.01 | 0.00 | 97 | 1012.6 |
| 20260509075607 | 73 | 94 | 0.0 | 0.0 | 0.00 | 0.01 | 0.00 | 97 | 1012.7 |
| 20260509075505 | 73 | 94 | 0.0 | 0.0 | 0.00 | 0.01 | 0.00 | 97 | 1012.7 |
| 20260509075405 | 73 | 94 | 0.0 | 0.0 | 0.00 | 0.01 | 0.00 | 97 | 1012.6 |
| 20260509075306 | 73 | 94 | 0.0 | 0.0 | 0.00 | 0.01 | 0.00 | 97 | 1012.5 |
| 20260509075206 | 73 | 94 | 0.0 | 0.0 | 0.00 | 0.01 | 0.00 | 97 | 1012.5 |
| 20260509075105 | 73 | 94 | 0.0 | 0.0 | 0.00 | 0.01 | 0.00 | 97 | 1012.7 |
| 20260509075005 | 73 | 94 | 0.0 | 0.0 | 0.00 | 0.01 | 0.00 | 97 | 1012.6 |
| 20260509074907 | 73 | 94 | 0.0 | 0.0 | 0.00 | 0.01 | 0.00 | 97 | 1012.7 |
| 20260509074805 | 73 | 94 | 0.0 | 0.0 | 0.00 | 0.01 | 0.00 | 97 | 1012.6 |
| 20260509074705 | 73 | 94 | 0.0 | 0.0 | 0.00 | 0.01 | 0.00 | 97 | 1012.7 |
| 20260509074605 | 73 | 94 | 0.0 | 0.0 | 0.00 | 0.01 | 0.00 | 97 | 1012.7 |
| 20260509074505 | 73 | 94 | 0.0 | 0.0 | 0.00 | 0.01 | 0.00 | 97 | 1012.7 |
| 20260509074405 | 73 | 94 | 0.0 | 0.0 | 0.00 | 0.01 | 0.00 | 97 | 1012.7 |
| 20260509074305 | 73 | 94 | 0.0 | 0.0 | 0.00 | 0.01 | 0.00 | 97 | 1012.7 |
| 20260509074207 | 73 | 94 | 0.0 | 0.0 | 0.00 | 0.01 | 0.00 | 97 | 1012.7 |
| 20260509074105 | 73 | 94 | 0.0 | 0.0 | 0.00 | 0.01 | 0.00 | 97 | 1012.8 |
| 20260509074005 | 73 | 94 | 0.0 | 0.0 | 0.00 | 0.01 | 0.00 | 97 | 1012.7 |
| 20260509073907 | 73 | 94 | 0.0 | 0.0 | 0.00 | 0.01 | 0.00 | 97 | 1012.8 |
| 20260509073806 | 73 | 94 | 0.0 | 0.0 | 0.00 | 0.01 | 0.00 | 97 | 1012.8 |
| 20260509073707 | 73 | 94 | 0.0 | 0.0 | 0.00 | 0.01 | 0.00 | 97 | 1012.7 |
| 20260509073606 | 73 | 94 | 0.0 | 0.0 | 0.00 | 0.01 | 0.00 | 97 | 1012.8 |
| 20260509073504 | 73 | 94 | 0.0 | 0.0 | 0.00 | 0.01 | 0.00 | 97 | 1012.9 |
| 20260509073403 | 73 | 94 | 0.0 | 0.0 | 0.00 | 0.01 | 0.00 | 97 | 1012.8 |
| 20260509073303 | 73 | 94 | 0.0 | 0.0 | 0.00 | 0.01 | 0.00 | 97 | 1012.9 |
| 20260509073203 | 73 | 94 | 0.0 | 0.0 | 0.00 | 0.01 | 0.00 | 97 | 1012.9 |
| 20260509073102 | 73 | 94 | 0.0 | 0.0 | 0.00 | 0.01 | 0.00 | 97 | 1013.0 |
| 20260509073003 | 73 | 94 | 0.0 | 0.0 | 0.00 | 0.01 | 0.00 | 97 | 1012.9 |
| 20260509072902 | 73 | 94 | 0.0 | 0.0 | 0.00 | 0.01 | 0.00 | 97 | 1012.9 |
| 20260509072802 | 73 | 94 | 0.0 | 0.0 | 0.00 | 0.01 | 0.00 | 97 | 1013.0 |
| 20260509072702 | 73 | 94 | 0.0 | 0.0 | 0.00 | 0.01 | 0.00 | 97 | 1012.9 |
| 20260509072603 | 73 | 94 | 0.0 | 0.0 | 0.00 | 0.01 | 0.00 | 97 | 1013.0 |
| 20260509072503 | 73 | 94 | 0.0 | 0.0 | 0.00 | 0.01 | 0.00 | 97 | 1013.0 |
| 20260509072402 | 73 | 94 | 0.0 | 0.0 | 0.00 | 0.01 | 0.00 | 97 | 1013.1 |
| 20260509072306 | 73 | 94 | 0.0 | 0.0 | 0.00 | 0.01 | 0.00 | 97 | 1013.1 |
| 20260509072204 | 73 | 94 | 0.0 | 0.0 | 0.00 | 0.01 | 0.00 | 97 | 1013.2 |
| 20260509072104 | 73 | 94 | 0.0 | 0.0 | 0.00 | 0.01 | 0.00 | 97 | 1013.2 |
| 20260509072003 | 73 | 94 | 0.0 | 0.0 | 0.00 | 0.01 | 0.00 | 97 | 1013.2 |
| 20260509071901 | 73 | 94 | 0.0 | 0.0 | 0.00 | 0.01 | 0.00 | 97 | 1013.3 |
| 20260509071803 | 73 | 94 | 0.0 | 0.0 | 0.00 | 0.01 | 0.00 | 97 | 1013.3 |
| 20260509071702 | 73 | 94 | 0.0 | 0.0 | 0.00 | 0.01 | 0.00 | 97 | 1013.3 |
| 20260509071603 | 73 | 94 | 0.0 | 0.0 | 0.00 | 0.01 | 0.00 | 97 | 1013.2 |
| 20260509071505 | 73 | 94 | 0.0 | 0.0 | 0.00 | 0.01 | 0.00 | 97 | 1013.2 |
| 20260509071403 | 73 | 94 | 0.0 | 0.0 | 0.00 | 0.01 | 0.00 | 97 | 1013.1 |
| 20260509071304 | 73 | 94 | 0.0 | 0.0 | 0.00 | 0.01 | 0.00 | 97 | 1013.1 |
| 20260509071203 | 73 | 94 | 0.0 | 0.0 | 0.00 | 0.01 | 0.00 | 97 | 1013.1 |
| 20260509071103 | 73 | 94 | 0.0 | 0.0 | 0.00 | 0.01 | 0.00 | 97 | 1013.0 |
| 20260509071003 | 73 | 94 | 0.0 | 0.0 | 0.00 | 0.01 | 0.00 | 97 | 1013.0 |
| 20260509070903 | 73 | 94 | 0.0 | 0.0 | 0.00 | 0.01 | 0.00 | 97 | 1012.9 |
| 20260509070805 | 73 | 94 | 0.0 | 0.0 | 0.00 | 0.01 | 0.00 | 97 | 1012.9 |
| 20260509070703 | 73 | 94 | 0.0 | 0.0 | 0.00 | 0.01 | 0.00 | 97 | 1012.9 |
| 20260509070603 | 73 | 94 | 0.0 | 0.0 | 0.00 | 0.01 | 0.00 | 97 | 1012.9 |
| 20260509070458 | 73 | 94 | 0.0 | 0.0 | 0.00 | 0.01 | 0.00 | 97 | 1013.0 |
| 20260509070356 | 73 | 94 | 0.0 | 0.0 | 0.00 | 0.01 | 0.00 | 97 | 1013.0 |
| 20260509070332 | 73 | 94 | 0.0 | 0.0 | 0.00 | 0.01 | 0.00 | 97 | 1012.9 |
| 20260509070323 | 73 | 94 | 0.0 | 0.0 | 0.00 | 0.01 | 0.00 | 97 | 1012.9 |
| 20260509070312 | 73 | 94 | 0.0 | 0.0 | 0.00 | 0.01 | 0.00 | 97 | 1012.9 |
| 20260509070252 | 73 | 94 | 0.0 | 0.0 | 0.00 | 0.01 | 0.00 | 97 | 1012.9 |
| 20260509070233 | 73 | 94 | 0.0 | 0.0 | 0.00 | 0.01 | 0.00 | 97 | 1012.9 |
| 20260509065952 | 73 | 94 | 0.0 | 0.0 | 0.00 | 0.01 | 0.00 | 97 | 1012.9 |
| 20260509065632 | 73 | 94 | 0.0 | 0.0 | 0.00 | 0.01 | 0.00 | 97 | 1012.8 |
| 20260509065524 | 73 | 94 | 0.0 | 0.0 | 0.00 | 0.01 | 0.00 | 97 | 1012.8 |
| 20260509065422 | 73 | 94 | 0.0 | 0.0 | 0.00 | 0.01 | 0.00 | 97 | 1012.8 |
| 20260509065320 | 73 | 94 | 0.0 | 0.0 | 0.00 | 0.01 | 0.00 | 97 | 1012.8 |
| 20260509065218 | 73 | 94 | 0.0 | 0.0 | 0.00 | 0.01 | 0.00 | 97 | 1012.8 |
| 20260509065115 | 73 | 94 | 0.0 | 0.0 | 0.00 | 0.01 | 0.00 | 97 | 1012.8 |
| 20260509065015 | 73 | 94 | 0.0 | 0.0 | 0.00 | 0.01 | 0.00 | 97 | 1012.9 |
| 20260509064903 | 73 | 94 | 0.0 | 0.0 | 0.00 | 0.01 | 0.00 | 97 | 1012.9 |
| 20260509064805 | 73 | 94 | 0.0 | 0.0 | 0.00 | 0.01 | 0.00 | 97 | 1012.9 |
| 20260509064703 | 73 | 94 | 0.0 | 0.0 | 0.00 | 0.01 | 0.00 | 97 | 1012.9 |
| 20260509064604 | 73 | 94 | 0.0 | 0.0 | 0.00 | 0.01 | 0.00 | 97 | 1013.0 |
| 20260509064505 | 73 | 94 | 0.0 | 0.0 | 0.00 | 0.01 | 0.00 | 97 | 1012.9 |
| 20260509064404 | 73 | 94 | 0.0 | 0.0 | 0.00 | 0.01 | 0.00 | 97 | 1013.1 |
| 20260509064304 | 73 | 94 | 0.0 | 0.0 | 0.00 | 0.01 | 0.00 | 97 | 1013.1 |
| 20260509064203 | 73 | 94 | 0.0 | 0.0 | 0.00 | 0.01 | 0.00 | 97 | 1013.1 |
| 20260509064105 | 73 | 94 | 0.0 | 0.0 | 0.00 | 0.01 | 0.00 | 97 | 1013.0 |
| 20260509064003 | 73 | 94 | 0.0 | 0.0 | 0.00 | 0.01 | 0.00 | 97 | 1013.0 |
| 20260509063903 | 73 | 94 | 0.0 | 0.0 | 0.00 | 0.01 | 0.00 | 97 | 1013.0 |
| 20260509063803 | 73 | 94 | 0.0 | 0.0 | 0.00 | 0.01 | 0.00 | 97 | 1012.9 |
| 20260509063705 | 73 | 94 | 0.0 | 0.0 | 0.00 | 0.01 | 0.00 | 97 | 1012.9 |
| 20260509063604 | 73 | 94 | 0.0 | 0.0 | 0.00 | 0.01 | 0.00 | 97 | 1012.9 |
| 20260509063505 | 73 | 94 | 0.0 | 0.0 | 0.00 | 0.01 | 0.00 | 97 | 1012.9 |
| 20260509063404 | 73 | 94 | 0.0 | 0.0 | 0.00 | 0.01 | 0.00 | 97 | 1013.0 |
| 20260509063304 | 73 | 94 | 0.0 | 0.0 | 0.00 | 0.01 | 0.00 | 97 | 1013.0 |
| 20260509063203 | 73 | 94 | 0.0 | 0.0 | 0.00 | 0.01 | 0.00 | 97 | 1013.1 |
| 20260509063103 | 73 | 94 | 0.0 | 0.0 | 0.00 | 0.01 | 0.00 | 97 | 1013.0 |
| 20260509063003 | 73 | 94 | 0.0 | 0.0 | 0.00 | 0.01 | 0.00 | 97 | 1013.0 |
| 20260509062905 | 73 | 94 | 0.0 | 0.0 | 0.00 | 0.01 | 0.00 | 97 | 1013.2 |
| 20260509062803 | 73 | 94 | 0.0 | 0.0 | 0.00 | 0.01 | 0.00 | 97 | 1013.2 |
| 20260509062703 | 73 | 94 | 0.0 | 0.0 | 0.00 | 0.01 | 0.00 | 97 | 1013.2 |
| 20260509062603 | 73 | 94 | 0.0 | 0.0 | 0.00 | 0.01 | 0.00 | 97 | 1013.2 |
| 20260509062506 | 73 | 94 | 0.0 | 0.0 | 0.00 | 0.01 | 0.00 | 97 | 1013.2 |
| 20260509062403 | 73 | 94 | 0.0 | 0.0 | 0.00 | 0.01 | 0.00 | 97 | 1013.3 |
| 20260509062306 | 73 | 94 | 0.0 | 0.0 | 0.00 | 0.01 | 0.00 | 97 | 1013.2 |
| 20260509062204 | 73 | 94 | 0.0 | 0.0 | 0.00 | 0.01 | 0.00 | 97 | 1013.2 |
| 20260509062104 | 73 | 94 | 0.0 | 0.0 | 0.00 | 0.01 | 0.00 | 97 | 1013.2 |
| 20260509062004 | 73 | 94 | 0.0 | 0.0 | 0.00 | 0.01 | 0.00 | 97 | 1013.1 |
| 20260509061903 | 73 | 94 | 0.0 | 0.0 | 0.00 | 0.01 | 0.00 | 97 | 1013.1 |
| 20260509061803 | 73 | 94 | 0.0 | 0.0 | 0.00 | 0.01 | 0.00 | 97 | 1013.1 |
| 20260509061703 | 73 | 94 | 0.0 | 0.0 | 0.00 | 0.01 | 0.00 | 97 | 1013.1 |
| 20260509061603 | 73 | 94 | 0.0 | 0.0 | 0.00 | 0.01 | 0.00 | 97 | 1013.1 |
| 20260509061503 | 73 | 94 | 0.0 | 0.0 | 0.00 | 0.01 | 0.00 | 97 | 1013.1 |
| 20260509061402 | 73 | 94 | 0.0 | 0.0 | 0.00 | 0.01 | 0.00 | 97 | 1013.1 |
| 20260509061300 | 73 | 94 | 0.0 | 0.0 | 0.00 | 0.01 | 0.00 | 97 | 1013.1 |
| 20260509061159 | 73 | 94 | 0.0 | 0.0 | 0.00 | 0.01 | 0.00 | 97 | 1013.2 |
| 20260509061058 | 73 | 94 | 0.0 | 0.0 | 0.00 | 0.01 | 0.00 | 97 | 1013.1 |
| 20260509060957 | 73 | 94 | 0.0 | 0.0 | 0.00 | 0.01 | 0.00 | 97 | 1013.3 |
| 20260509060855 | 73 | 94 | 0.0 | 0.0 | 0.00 | 0.01 | 0.00 | 97 | 1013.2 |
| 20260509060746 | 73 | 94 | 0.0 | 0.0 | 0.00 | 0.01 | 0.00 | 97 | 1013.3 |
| 20260509060644 | 73 | 94 | 0.0 | 0.0 | 0.00 | 0.01 | 0.00 | 97 | 1013.3 |
| 20260509060541 | 73 | 94 | 0.0 | 0.0 | 0.00 | 0.01 | 0.00 | 97 | 1013.4 |
| 20260509060440 | 73 | 94 | 0.0 | 0.0 | 0.00 | 0.01 | 0.00 | 97 | 1013.4 |
| 20260509060339 | 73 | 94 | 0.0 | 0.0 | 0.00 | 0.01 | 0.00 | 97 | 1013.4 |
| 20260509060237 | 73 | 94 | 0.0 | 0.0 | 0.00 | 0.01 | 0.00 | 97 | 1013.4 |
| 20260509060136 | 73 | 94 | 0.0 | 0.0 | 0.00 | 0.01 | 0.00 | 97 | 1013.5 |
| 20260509060036 | 73 | 94 | 0.0 | 0.0 | 0.00 | 0.01 | 0.00 | 97 | 1013.4 |
| 20260509055933 | 73 | 94 | 0.0 | 0.0 | 0.00 | 0.01 | 0.00 | 97 | 1013.4 |
| 20260509055831 | 73 | 94 | 0.0 | 0.0 | 0.00 | 0.01 | 0.00 | 97 | 1013.4 |
| 20260509055732 | 73 | 94 | 0.0 | 0.0 | 0.00 | 0.01 | 0.00 | 97 | 1013.4 |
| 20260509055632 | 73 | 94 | 0.0 | 0.0 | 0.00 | 0.01 | 0.00 | 97 | 1013.4 |
| 20260509055532 | 73 | 94 | 0.0 | 0.0 | 0.00 | 0.01 | 0.00 | 97 | 1013.3 |
| 20260509055429 | 73 | 94 | 0.0 | 0.0 | 0.00 | 0.01 | 0.00 | 97 | 1013.3 |
| 20260509055327 | 73 | 94 | 0.0 | 0.0 | 0.00 | 0.01 | 0.00 | 97 | 1013.3 |
| 20260509055226 | 73 | 94 | 0.0 | 0.0 | 0.00 | 0.01 | 0.00 | 97 | 1013.2 |
| 20260509055119 | 73 | 94 | 0.0 | 0.0 | 0.00 | 0.01 | 0.00 | 97 | 1013.3 |
| 20260509055018 | 73 | 94 | 0.0 | 0.0 | 0.00 | 0.01 | 0.00 | 97 | 1013.3 |
| 20260509054916 | 73 | 94 | 0.0 | 0.0 | 0.00 | 0.01 | 0.00 | 97 | 1013.3 |
| 20260509054816 | 73 | 94 | 0.0 | 0.0 | 0.00 | 0.01 | 0.00 | 97 | 1013.2 |
| 20260509054712 | 73 | 94 | 0.0 | 0.0 | 0.00 | 0.01 | 0.00 | 97 | 1013.2 |
| 20260509054612 | 73 | 94 | 0.0 | 0.0 | 0.00 | 0.01 | 0.00 | 97 | 1013.1 |
| 20260509054512 | 73 | 94 | 0.0 | 0.0 | 0.00 | 0.01 | 0.00 | 97 | 1013.2 |
| 20260509054409 | 73 | 94 | 0.0 | 0.0 | 0.00 | 0.01 | 0.00 | 97 | 1013.2 |
| 20260509054304 | 73 | 94 | 0.0 | 0.0 | 0.00 | 0.01 | 0.00 | 97 | 1013.2 |
| 20260509054159 | 73 | 94 | 0.0 | 0.0 | 0.00 | 0.01 | 0.00 | 97 | 1013.2 |
| 20260509054033 | 73 | 94 | 0.0 | 0.0 | 0.00 | 0.01 | 0.00 | 97 | 1013.3 |
| 20260509053933 | 73 | 94 | 0.0 | 0.0 | 0.00 | 0.01 | 0.00 | 97 | 1013.2 |
| 20260509053833 | 73 | 94 | 0.0 | 0.0 | 0.00 | 0.01 | 0.00 | 97 | 1013.2 |
| 20260509053731 | 73 | 94 | 0.0 | 0.0 | 0.00 | 0.01 | 0.00 | 97 | 1013.3 |
| 20260509053630 | 73 | 94 | 0.0 | 0.0 | 0.00 | 0.01 | 0.00 | 97 | 1013.3 |
| 20260509053529 | 73 | 94 | 0.0 | 0.0 | 0.00 | 0.01 | 0.00 | 97 | 1013.4 |
| 20260509053427 | 73 | 94 | 0.0 | 0.0 | 0.00 | 0.01 | 0.00 | 97 | 1013.3 |
| 20260509053324 | 73 | 94 | 0.0 | 0.0 | 0.00 | 0.01 | 0.00 | 97 | 1013.3 |
| 20260509053224 | 73 | 94 | 0.0 | 0.0 | 0.00 | 0.01 | 0.00 | 97 | 1013.4 |
| 20260509053122 | 73 | 94 | 0.0 | 0.0 | 0.00 | 0.01 | 0.00 | 97 | 1013.5 |
| 20260509053014 | 73 | 94 | 0.0 | 0.0 | 0.00 | 0.01 | 0.00 | 97 | 1013.4 |
| 20260509052905 | 73 | 94 | 0.0 | 0.0 | 0.00 | 0.01 | 0.00 | 97 | 1013.4 |
| 20260509052804 | 73 | 94 | 0.0 | 0.0 | 0.00 | 0.01 | 0.00 | 97 | 1013.4 |
| 20260509052703 | 73 | 94 | 0.0 | 0.0 | 0.00 | 0.01 | 0.00 | 97 | 1013.4 |
| 20260509052603 | 73 | 94 | 0.0 | 0.0 | 0.00 | 0.01 | 0.00 | 97 | 1013.4 |
| 20260509052503 | 73 | 94 | 0.0 | 0.0 | 0.00 | 0.01 | 0.00 | 97 | 1013.4 |
| 20260509052402 | 73 | 94 | 0.0 | 0.0 | 0.00 | 0.01 | 0.00 | 97 | 1013.5 |
| 20260509052306 | 73 | 94 | 0.0 | 0.0 | 0.00 | 0.01 | 0.00 | 97 | 1013.4 |
| 20260509052202 | 73 | 94 | 0.0 | 0.0 | 0.00 | 0.01 | 0.00 | 97 | 1013.4 |
| 20260509052102 | 73 | 94 | 0.0 | 0.0 | 0.00 | 0.01 | 0.00 | 97 | 1013.3 |
| 20260509052003 | 73 | 94 | 0.0 | 0.0 | 0.00 | 0.01 | 0.00 | 97 | 1013.4 |
| 20260509051903 | 73 | 94 | 0.0 | 0.0 | 0.00 | 0.01 | 0.00 | 97 | 1013.4 |
| 20260509051802 | 73 | 94 | 0.0 | 0.0 | 0.00 | 0.01 | 0.00 | 97 | 1013.4 |
| 20260509051703 | 73 | 94 | 0.0 | 0.0 | 0.00 | 0.01 | 0.00 | 97 | 1013.4 |
| 20260509051603 | 73 | 94 | 0.0 | 0.0 | 0.00 | 0.01 | 0.00 | 97 | 1013.4 |
| 20260509051505 | 73 | 94 | 0.0 | 0.0 | 0.00 | 0.01 | 0.00 | 97 | 1013.4 |
| 20260509051404 | 73 | 94 | 0.0 | 0.0 | 0.00 | 0.01 | 0.00 | 97 | 1013.4 |
| 20260509051301 | 73 | 94 | 0.0 | 0.0 | 0.00 | 0.01 | 0.00 | 97 | 1013.4 |
| 20260509051203 | 73 | 94 | 0.0 | 0.0 | 0.00 | 0.01 | 0.00 | 97 | 1013.5 |
| 20260509051101 | 73 | 94 | 0.0 | 0.0 | 0.00 | 0.01 | 0.00 | 97 | 1013.4 |
| 20260509051004 | 73 | 94 | 0.0 | 0.0 | 0.00 | 0.01 | 0.00 | 97 | 1013.5 |
| 20260509050841 | 73 | 94 | 0.0 | 0.0 | 0.00 | 0.01 | 0.00 | 97 | 1013.5 |
| 20260509050739 | 73 | 94 | 0.0 | 0.0 | 0.00 | 0.01 | 0.00 | 97 | 1013.5 |
| 20260509050639 | 73 | 94 | 0.0 | 0.0 | 0.00 | 0.01 | 0.00 | 97 | 1013.6 |
| 20260509050532 | 73 | 94 | 0.0 | 0.0 | 0.00 | 0.01 | 0.00 | 97 | 1013.5 |
| 20260509050431 | 73 | 94 | 0.0 | 0.0 | 0.00 | 0.01 | 0.00 | 97 | 1013.6 |
| 20260509050332 | 73 | 94 | 0.0 | 0.0 | 0.00 | 0.01 | 0.00 | 97 | 1013.5 |
| 20260509050232 | 73 | 94 | 0.0 | 0.0 | 0.00 | 0.01 | 0.00 | 97 | 1013.5 |
| 20260509050131 | 73 | 94 | 0.0 | 0.0 | 0.00 | 0.01 | 0.00 | 97 | 1013.4 |
| 20260509050032 | 73 | 94 | 0.0 | 0.0 | 0.00 | 0.01 | 0.00 | 97 | 1013.5 |
| 20260509045932 | 73 | 94 | 0.0 | 0.0 | 0.00 | 0.01 | 0.01 | 97 | 1013.5 |
| 20260509045833 | 73 | 94 | 0.0 | 0.0 | 0.00 | 0.01 | 0.01 | 97 | 1013.5 |
| 20260509045731 | 73 | 94 | 0.0 | 1.0 | 0.00 | 0.01 | 0.01 | 97 | 1013.5 |
| 20260509045632 | 73 | 94 | 0.0 | 1.0 | 0.00 | 0.01 | 0.01 | 97 | 1013.4 |
| 20260509045533 | 73 | 94 | 0.0 | 1.0 | 0.00 | 0.01 | 0.01 | 97 | 1013.5 |
| 20260509045431 | 73 | 94 | 0.0 | 1.0 | 0.00 | 0.01 | 0.01 | 97 | 1013.5 |
| 20260509045333 | 73 | 94 | 0.0 | 1.0 | 0.00 | 0.01 | 0.01 | 97 | 1013.5 |
| 20260509045233 | 73 | 94 | 0.0 | 1.0 | 0.00 | 0.01 | 0.01 | 97 | 1013.5 |
| 20260509045133 | 73 | 94 | 0.0 | 1.0 | 0.00 | 0.01 | 0.01 | 97 | 1013.4 |
| 20260509045031 | 73 | 94 | 0.0 | 1.0 | 0.00 | 0.01 | 0.01 | 97 | 1013.6 |
| 20260509044932 | 73 | 94 | 0.0 | 1.0 | 0.00 | 0.01 | 0.01 | 97 | 1013.5 |
| 20260509044834 | 73 | 94 | 0.0 | 1.0 | 0.00 | 0.01 | 0.01 | 97 | 1013.6 |
| 20260509044731 | 73 | 94 | 0.0 | 0.0 | 0.00 | 0.01 | 0.01 | 97 | 1013.5 |
| 20260509044631 | 73 | 94 | 0.0 | 0.0 | 0.00 | 0.01 | 0.01 | 97 | 1013.7 |
| 20260509044532 | 73 | 94 | 0.0 | 0.0 | 0.00 | 0.01 | 0.01 | 97 | 1013.7 |
| 20260509044431 | 73 | 94 | 0.0 | 0.0 | 0.00 | 0.01 | 0.01 | 97 | 1013.6 |
| 20260509044332 | 73 | 94 | 0.0 | 0.0 | 0.00 | 0.01 | 0.01 | 97 | 1013.7 |
| 20260509044232 | 73 | 94 | 0.0 | 0.0 | 0.00 | 0.01 | 0.01 | 97 | 1013.6 |
| 20260509044132 | 73 | 94 | 0.0 | 0.0 | 0.00 | 0.01 | 0.01 | 97 | 1013.7 |
| 20260509044032 | 73 | 94 | 0.0 | 0.0 | 0.00 | 0.01 | 0.01 | 97 | 1013.7 |
| 20260509043932 | 73 | 94 | 0.0 | 0.0 | 0.00 | 0.01 | 0.01 | 97 | 1013.7 |
| 20260509043832 | 73 | 94 | 0.0 | 0.0 | 0.00 | 0.01 | 0.01 | 97 | 1013.6 |
| 20260509043731 | 73 | 94 | 0.0 | 0.0 | 0.00 | 0.01 | 0.01 | 97 | 1013.7 |
| 20260509043631 | 73 | 94 | 0.0 | 0.0 | 0.00 | 0.01 | 0.01 | 97 | 1013.7 |
| 20260509043531 | 73 | 94 | 0.0 | 0.0 | 0.00 | 0.01 | 0.01 | 97 | 1013.7 |
| 20260509043432 | 73 | 94 | 0.0 | 0.0 | 0.00 | 0.01 | 0.01 | 97 | 1013.7 |
| 20260509043333 | 73 | 94 | 0.0 | 0.0 | 0.00 | 0.01 | 0.01 | 97 | 1013.7 |
| 20260509043231 | 73 | 94 | 0.0 | 0.0 | 0.00 | 0.01 | 0.01 | 97 | 1013.7 |
| 20260509043132 | 73 | 94 | 0.0 | 0.0 | 0.00 | 0.01 | 0.01 | 97 | 1013.7 |
| 20260509043032 | 73 | 94 | 0.0 | 0.0 | 0.00 | 0.01 | 0.01 | 97 | 1013.7 |
| 20260509042932 | 73 | 94 | 0.0 | 0.0 | 0.00 | 0.01 | 0.01 | 97 | 1013.8 |
| 20260509042832 | 73 | 94 | 0.0 | 0.0 | 0.00 | 0.01 | 0.01 | 97 | 1013.7 |
| 20260509042733 | 73 | 94 | 0.0 | 0.0 | 0.00 | 0.01 | 0.01 | 97 | 1013.8 |
| 20260509042633 | 73 | 94 | 0.0 | 0.0 | 0.00 | 0.01 | 0.01 | 97 | 1013.7 |
| 20260509042530 | 73 | 94 | 0.0 | 1.0 | 0.00 | 0.01 | 0.01 | 97 | 1013.7 |
| 20260509042432 | 73 | 94 | 0.0 | 1.0 | 0.00 | 0.01 | 0.01 | 97 | 1013.8 |
| 20260509042331 | 73 | 94 | 0.0 | 1.0 | 0.00 | 0.01 | 0.01 | 97 | 1013.7 |
| 20260509042232 | 73 | 94 | 0.0 | 1.0 | 0.00 | 0.01 | 0.01 | 97 | 1013.8 |
| 20260509042132 | 73 | 94 | 0.0 | 1.0 | 0.00 | 0.01 | 0.01 | 97 | 1013.7 |
| 20260509042032 | 73 | 94 | 0.0 | 1.0 | 0.00 | 0.01 | 0.01 | 97 | 1013.6 |
| 20260509041921 | 73 | 94 | 0.0 | 1.0 | 0.00 | 0.01 | 0.01 | 97 | 1013.6 |
| 20260509041818 | 73 | 94 | 0.0 | 1.0 | 0.00 | 0.01 | 0.01 | 97 | 1013.6 |
| 20260509041718 | 73 | 94 | 0.0 | 2.0 | 0.00 | 0.01 | 0.01 | 97 | 1013.6 |
| 20260509041614 | 73 | 94 | 0.0 | 2.0 | 0.00 | 0.01 | 0.01 | 97 | 1013.6 |
| 20260509041513 | 73 | 94 | 0.0 | 2.0 | 0.00 | 0.01 | 0.01 | 97 | 1013.6 |
| 20260509041403 | 73 | 94 | 1.0 | 2.0 | 0.00 | 0.01 | 0.01 | 97 | 1013.5 |
| 20260509041304 | 73 | 94 | 0.0 | 2.0 | 0.00 | 0.01 | 0.01 | 97 | 1013.4 |
| 20260509041202 | 73 | 94 | 0.0 | 2.0 | 0.00 | 0.01 | 0.01 | 97 | 1013.4 |
| 20260509041103 | 73 | 94 | 0.0 | 2.0 | 0.00 | 0.01 | 0.01 | 97 | 1013.4 |
| 20260509041002 | 73 | 94 | 0.0 | 2.0 | 0.00 | 0.01 | 0.01 | 97 | 1013.3 |
| 20260509040902 | 73 | 94 | 0.0 | 2.0 | 0.00 | 0.01 | 0.01 | 97 | 1013.3 |
| 20260509040804 | 73 | 94 | 1.0 | 2.0 | 0.00 | 0.01 | 0.01 | 97 | 1013.3 |
| 20260509040702 | 73 | 94 | 1.0 | 2.0 | 0.00 | 0.01 | 0.01 | 97 | 1013.2 |
| 20260509040603 | 73 | 94 | 1.0 | 2.0 | 0.00 | 0.01 | 0.01 | 97 | 1013.2 |
| 20260509040502 | 73 | 94 | 1.0 | 2.0 | 0.00 | 0.01 | 0.01 | 97 | 1013.2 |
| 20260509040402 | 73 | 94 | 1.0 | 2.0 | 0.00 | 0.01 | 0.01 | 97 | 1013.2 |
| 20260509040302 | 73 | 94 | 1.0 | 2.0 | 0.00 | 0.01 | 0.01 | 97 | 1013.2 |
| 20260509040203 | 73 | 94 | 1.0 | 2.0 | 0.00 | 0.01 | 0.01 | 97 | 1013.1 |
| 20260509040003 | 73 | 94 | 1.0 | 2.0 | 0.00 | 0.01 | 0.01 | 97 | 1013.1 |
| 20260509035902 | 73 | 94 | 0.0 | 1.0 | 0.00 | 0.01 | 0.01 | 97 | 1013.1 |
| 20260509035803 | 73 | 94 | 0.0 | 2.0 | 0.00 | 0.01 | 0.01 | 97 | 1013.2 |
| 20260509035703 | 73 | 94 | 0.0 | 2.0 | 0.00 | 0.01 | 0.01 | 97 | 1013.1 |
| 20260509035602 | 73 | 94 | 0.0 | 2.0 | 0.00 | 0.01 | 0.01 | 97 | 1013.2 |
| 20260509035502 | 73 | 94 | 0.0 | 2.0 | 0.00 | 0.01 | 0.01 | 97 | 1013.1 |
| 20260509035403 | 73 | 94 | 0.0 | 2.0 | 0.00 | 0.01 | 0.01 | 97 | 1013.1 |
| 20260509035305 | 73 | 94 | 0.0 | 2.0 | 0.00 | 0.01 | 0.01 | 97 | 1013.2 |
| 20260509035202 | 73 | 94 | 0.0 | 2.0 | 0.00 | 0.01 | 0.01 | 97 | 1013.2 |
| 20260509035102 | 73 | 94 | 0.0 | 2.0 | 0.00 | 0.01 | 0.01 | 97 | 1013.2 |
| 20260509035003 | 73 | 94 | 1.0 | 2.0 | 0.00 | 0.01 | 0.01 | 97 | 1013.1 |
| 20260509034902 | 73 | 94 | 1.0 | 2.0 | 0.00 | 0.01 | 0.01 | 97 | 1013.1 |
| 20260509034805 | 73 | 94 | 0.0 | 2.0 | 0.00 | 0.01 | 0.01 | 97 | 1013.1 |
| 20260509034704 | 73 | 94 | 0.0 | 2.0 | 0.00 | 0.01 | 0.01 | 97 | 1013.2 |
| 20260509034602 | 73 | 94 | 0.0 | 2.0 | 0.00 | 0.01 | 0.01 | 97 | 1013.1 |
| 20260509034503 | 73 | 94 | 0.0 | 2.0 | 0.00 | 0.01 | 0.01 | 97 | 1013.2 |
| 20260509034401 | 73 | 94 | 0.0 | 2.0 | 0.00 | 0.01 | 0.01 | 97 | 1013.2 |
| 20260509034303 | 73 | 94 | 0.0 | 2.0 | 0.00 | 0.01 | 0.01 | 97 | 1013.3 |
| 20260509034203 | 73 | 94 | 0.0 | 2.0 | 0.00 | 0.01 | 0.01 | 97 | 1013.2 |
| 20260509034104 | 73 | 94 | 0.0 | 2.0 | 0.00 | 0.01 | 0.01 | 97 | 1013.2 |
| 20260509034004 | 73 | 94 | 0.0 | 3.0 | 0.00 | 0.01 | 0.01 | 97 | 1013.2 |
| 20260509033903 | 73 | 94 | 0.0 | 3.0 | 0.00 | 0.01 | 0.01 | 97 | 1013.2 |
| 20260509033803 | 73 | 94 | 0.0 | 3.0 | 0.00 | 0.01 | 0.01 | 97 | 1013.2 |